Wetterdaten: Donnerstag, 23.03.2023
Datum Zeit Temp. Aussen Temp. o. S. Temp +5cm Feuchte Auss Luftdruck Regen Sonnenschein Regendauer Solar Windben Empfang
23.03.2023 00:00 12,4 C 11,7 C 7,2 C 86 % 1005,3 hPa 0,0 l/m 0 min 0 min 0 W/m 22,5 km/h (4 Bft) 97,87 %
23.03.2023 00:02 12,4 C 11,7 C 7,2 C 86 % 1005,2 hPa 0,0 l/m 0 min 0 min 0 W/m 25,7 km/h (4 Bft) 100,00 %
23.03.2023 00:04 12,4 C 11,7 C 7,2 C 86 % 1005,1 hPa 0,0 l/m 0 min 0 min 0 W/m 29,0 km/h (5 Bft) 100,00 %
23.03.2023 00:07 12,5 C 11,7 C 7,2 C 86 % 1005,1 hPa 0,0 l/m 0 min 3 min 0 W/m 38,6 km/h (5 Bft) 95,71 %
23.03.2023 00:08 12,5 C 11,7 C 7,2 C 86 % 1005,1 hPa 0,0 l/m 0 min 0 min 0 W/m 19,3 km/h (3 Bft) 100,00 %
23.03.2023 00:12 12,6 C 11,7 C 7,2 C 85 % 1005,2 hPa 0,0 l/m 0 min 0 min 0 W/m 22,5 km/h (4 Bft) 97,87 %
23.03.2023 00:14 12,6 C 11,7 C 7,2 C 85 % 1005,1 hPa 0,0 l/m 0 min 0 min 0 W/m 19,3 km/h (3 Bft) 100,00 %
23.03.2023 00:16 12,6 C 11,7 C 7,8 C 85 % 1005,1 hPa 0,0 l/m 0 min 0 min 0 W/m 22,5 km/h (4 Bft) 97,87 %
23.03.2023 00:18 12,6 C 11,7 C 7,8 C 85 % 1005,1 hPa 0,0 l/m 0 min 0 min 0 W/m 32,2 km/h (5 Bft) 97,87 %
23.03.2023 00:20 12,6 C 12,2 C 7,8 C 84 % 1005,1 hPa 0,0 l/m 0 min 0 min 0 W/m 38,6 km/h (5 Bft) 96,43 %
23.03.2023 00:22 12,7 C 12,2 C 7,8 C 85 % 1005,0 hPa 0,0 l/m 0 min 0 min 0 W/m 35,4 km/h (5 Bft) 97,83 %
23.03.2023 00:24 12,7 C 12,2 C 7,8 C 84 % 1005,0 hPa 0,0 l/m 0 min 0 min 0 W/m 25,7 km/h (4 Bft) 97,87 %
23.03.2023 00:26 12,7 C 12,2 C 7,8 C 84 % 1005,2 hPa 0,0 l/m 0 min 0 min 0 W/m 32,2 km/h (5 Bft) 95,74 %
23.03.2023 00:28 12,7 C 12,2 C 8,3 C 84 % 1005,1 hPa 0,0 l/m 0 min 0 min 0 W/m 22,5 km/h (4 Bft) 97,87 %
23.03.2023 00:30 12,7 C 12,2 C 8,3 C 84 % 1005,0 hPa 0,0 l/m 0 min 0 min 0 W/m 25,7 km/h (4 Bft) 97,37 %
23.03.2023 00:32 12,8 C 12,2 C 8,3 C 84 % 1004,9 hPa 0,0 l/m 0 min 0 min 0 W/m 25,7 km/h (4 Bft) 97,87 %
23.03.2023 00:34 12,8 C 12,2 C 8,3 C 84 % 1004,9 hPa 0,0 l/m 0 min 0 min 0 W/m 41,8 km/h (6 Bft) 97,87 %
23.03.2023 00:36 12,8 C 12,2 C 8,3 C 84 % 1005,0 hPa 0,0 l/m 0 min 0 min 0 W/m 22,5 km/h (4 Bft) 97,87 %
23.03.2023 00:38 12,8 C 12,2 C 8,3 C 84 % 1004,9 hPa 0,0 l/m 0 min 0 min 0 W/m 29,0 km/h (5 Bft) 97,87 %
23.03.2023 00:40 12,8 C 12,2 C 8,3 C 84 % 1005,0 hPa 0,0 l/m 0 min 0 min 0 W/m 25,7 km/h (4 Bft) 97,87 %
23.03.2023 00:42 12,8 C 12,2 C 8,3 C 84 % 1005,0 hPa 0,0 l/m 0 min 0 min 0 W/m 35,4 km/h (5 Bft) 100,00 %
23.03.2023 00:44 12,8 C 12,2 C 8,3 C 84 % 1005,0 hPa 0,0 l/m 0 min 0 min 0 W/m 25,7 km/h (4 Bft) 100,00 %
23.03.2023 00:46 12,8 C 12,2 C 8,3 C 84 % 1005,1 hPa 0,0 l/m 0 min 0 min 0 W/m 19,3 km/h (3 Bft) 97,87 %
23.03.2023 00:48 12,8 C 12,2 C 8,3 C 84 % 1005,1 hPa 0,0 l/m 0 min 0 min 0 W/m 29,0 km/h (5 Bft) 100,00 %
23.03.2023 00:50 12,8 C 12,2 C 8,3 C 84 % 1005,0 hPa 0,0 l/m 0 min 0 min 0 W/m 29,0 km/h (5 Bft) 100,00 %
23.03.2023 00:52 12,8 C 12,2 C 8,3 C 84 % 1005,0 hPa 0,0 l/m 0 min 0 min 0 W/m 32,2 km/h (5 Bft) 100,00 %
23.03.2023 00:54 12,9 C 12,2 C 8,3 C 83 % 1004,9 hPa 0,0 l/m 0 min 0 min 0 W/m 29,0 km/h (5 Bft) 100,00 %
23.03.2023 00:56 12,9 C 12,2 C 8,3 C 84 % 1004,8 hPa 0,0 l/m 0 min 0 min 0 W/m 19,3 km/h (3 Bft) 100,00 %
23.03.2023 00:58 12,8 C 12,2 C 8,3 C 84 % 1004,8 hPa 0,0 l/m 0 min 0 min 0 W/m 22,5 km/h (4 Bft) 100,00 %
23.03.2023 01:00 12,8 C 12,2 C 8,3 C 84 % 1004,7 hPa 0,0 l/m 0 min 0 min 0 W/m 16,1 km/h (3 Bft) 98,15 %
23.03.2023 01:02 12,8 C 12,2 C 8,3 C 84 % 1004,7 hPa 0,0 l/m 0 min 0 min 0 W/m 19,3 km/h (3 Bft) 100,00 %
23.03.2023 01:04 12,8 C 12,2 C 8,3 C 84 % 1004,6 hPa 0,0 l/m 0 min 0 min 0 W/m 45,1 km/h (6 Bft) 100,00 %
23.03.2023 01:06 12,8 C 12,2 C 8,3 C 84 % 1004,6 hPa 0,0 l/m 0 min 0 min 0 W/m 29,0 km/h (5 Bft) 100,00 %
23.03.2023 01:08 12,8 C 12,2 C 8,3 C 84 % 1004,6 hPa 0,0 l/m 0 min 0 min 0 W/m 22,5 km/h (4 Bft) 100,00 %
23.03.2023 01:10 12,8 C 12,2 C 8,3 C 84 % 1004,7 hPa 0,0 l/m 0 min 0 min 0 W/m 29,0 km/h (5 Bft) 100,00 %
23.03.2023 01:12 12,8 C 12,2 C 8,3 C 84 % 1004,6 hPa 0,0 l/m 0 min 0 min 0 W/m 29,0 km/h (5 Bft) 100,00 %
23.03.2023 01:14 12,8 C 12,2 C 8,3 C 84 % 1004,6 hPa 0,0 l/m 0 min 0 min 0 W/m 16,1 km/h (3 Bft) 100,00 %
23.03.2023 01:16 12,8 C 12,2 C 8,3 C 84 % 1004,6 hPa 0,0 l/m 0 min 0 min 0 W/m 16,1 km/h (3 Bft) 100,00 %
23.03.2023 01:18 12,8 C 12,2 C 8,3 C 84 % 1004,6 hPa 0,0 l/m 0 min 0 min 0 W/m 22,5 km/h (4 Bft) 100,00 %
23.03.2023 01:20 12,8 C 12,2 C 8,3 C 84 % 1004,6 hPa 0,0 l/m 0 min 0 min 0 W/m 29,0 km/h (5 Bft) 97,87 %
23.03.2023 01:22 12,8 C 12,2 C 8,3 C 84 % 1004,6 hPa 0,0 l/m 0 min 0 min 0 W/m 22,5 km/h (4 Bft) 100,00 %
23.03.2023 01:24 12,8 C 11,7 C 7,8 C 84 % 1004,5 hPa 0,0 l/m 0 min 0 min 0 W/m 12,9 km/h (3 Bft) 100,00 %
23.03.2023 01:26 12,7 C 11,7 C 7,8 C 84 % 1004,5 hPa 0,0 l/m 0 min 0 min 0 W/m 22,5 km/h (4 Bft) 100,00 %
23.03.2023 01:28 12,7 C 11,7 C 7,8 C 84 % 1004,5 hPa 0,0 l/m 0 min 0 min 0 W/m 12,9 km/h (3 Bft) 97,87 %
23.03.2023 01:30 12,7 C 11,7 C 7,8 C 85 % 1004,5 hPa 0,0 l/m 0 min 0 min 0 W/m 19,3 km/h (3 Bft) 100,00 %
23.03.2023 01:32 12,7 C 11,7 C 7,8 C 85 % 1004,5 hPa 0,0 l/m 0 min 0 min 0 W/m 22,5 km/h (4 Bft) 100,00 %
23.03.2023 01:34 12,7 C 11,7 C 7,8 C 85 % 1004,6 hPa 0,0 l/m 0 min 0 min 0 W/m 29,0 km/h (5 Bft) 100,00 %
23.03.2023 01:36 12,7 C 11,7 C 7,8 C 85 % 1004,5 hPa 0,0 l/m 0 min 0 min 0 W/m 22,5 km/h (4 Bft) 100,00 %
23.03.2023 01:38 12,6 C 11,7 C 7,8 C 85 % 1004,5 hPa 0,0 l/m 0 min 0 min 0 W/m 29,0 km/h (5 Bft) 100,00 %
23.03.2023 01:40 12,6 C 11,7 C 7,8 C 85 % 1004,6 hPa 0,0 l/m 0 min 0 min 0 W/m 16,1 km/h (3 Bft) 97,87 %
23.03.2023 01:42 12,6 C 11,7 C 7,8 C 85 % 1004,5 hPa 0,0 l/m 0 min 0 min 0 W/m 22,5 km/h (4 Bft) 95,74 %
23.03.2023 01:44 12,6 C 11,7 C 7,8 C 85 % 1004,5 hPa 0,0 l/m 0 min 0 min 0 W/m 22,5 km/h (4 Bft) 97,92 %
23.03.2023 01:46 12,6 C 11,7 C 7,8 C 85 % 1004,4 hPa 0,0 l/m 0 min 0 min 0 W/m 12,9 km/h (3 Bft) 97,87 %
23.03.2023 01:48 12,6 C 11,7 C 7,8 C 85 % 1004,4 hPa 0,0 l/m 0 min 0 min 0 W/m 12,9 km/h (3 Bft) 93,48 %
23.03.2023 01:50 12,6 C 11,7 C 7,8 C 85 % 1004,3 hPa 0,0 l/m 0 min 0 min 0 W/m 12,9 km/h (3 Bft) 97,87 %
23.03.2023 01:52 12,6 C 11,7 C 7,8 C 85 % 1004,3 hPa 0,0 l/m 0 min 0 min 0 W/m 12,9 km/h (3 Bft) 93,62 %
23.03.2023 01:54 12,6 C 11,7 C 7,8 C 85 % 1004,2 hPa 0,0 l/m 0 min 0 min 0 W/m 12,9 km/h (3 Bft) 97,87 %
23.03.2023 01:56 12,5 C 11,7 C 7,8 C 86 % 1004,3 hPa 0,0 l/m 0 min 0 min 0 W/m 12,9 km/h (3 Bft) 97,87 %
23.03.2023 01:58 12,5 C 11,7 C 7,8 C 86 % 1004,3 hPa 0,0 l/m 0 min 0 min 0 W/m 19,3 km/h (3 Bft) 95,74 %
23.03.2023 02:00 12,5 C 11,7 C 7,8 C 86 % 1004,3 hPa 0,0 l/m 0 min 0 min 0 W/m 16,1 km/h (3 Bft) 95,74 %
23.03.2023 02:02 12,5 C 11,7 C 7,8 C 86 % 1004,5 hPa 0,0 l/m 0 min 0 min 0 W/m 22,5 km/h (4 Bft) 95,65 %
23.03.2023 02:04 12,5 C 11,7 C 7,8 C 86 % 1004,5 hPa 0,0 l/m 0 min 0 min 0 W/m 25,7 km/h (4 Bft) 91,49 %
23.03.2023 02:06 12,5 C 11,7 C 7,8 C 86 % 1004,5 hPa 0,0 l/m 0 min 0 min 0 W/m 22,5 km/h (4 Bft) 93,62 %
23.03.2023 02:08 12,5 C 11,7 C 7,8 C 86 % 1004,5 hPa 0,0 l/m 0 min 0 min 0 W/m 22,5 km/h (4 Bft) 93,62 %
23.03.2023 02:10 12,5 C 11,7 C 7,8 C 86 % 1004,6 hPa 0,0 l/m 0 min 0 min 0 W/m 19,3 km/h (3 Bft) 92,45 %
23.03.2023 02:17 12,5 C 11,7 C 7,8 C 86 % 1004,4 hPa 0,0 l/m 0 min 0 min 0 W/m 22,5 km/h (4 Bft) 97,01 %
23.03.2023 02:18 12,5 C 11,7 C 7,8 C 86 % 1004,4 hPa 0,0 l/m 0 min 0 min 0 W/m 12,9 km/h (3 Bft) 91,30 %
23.03.2023 02:20 12,5 C 11,7 C 7,8 C 86 % 1004,3 hPa 0,0 l/m 0 min 0 min 0 W/m 19,3 km/h (3 Bft) 97,37 %
23.03.2023 02:22 12,5 C 11,7 C 7,8 C 86 % 1004,3 hPa 0,0 l/m 0 min 0 min 0 W/m 12,9 km/h (3 Bft) 94,27 %
23.03.2023 02:24 12,5 C 11,7 C 7,8 C 86 % 1004,2 hPa 0,0 l/m 0 min 0 min 0 W/m 9,7 km/h (2 Bft) 94,44 %
23.03.2023 02:26 12,5 C 11,7 C 7,8 C 86 % 1004,2 hPa 0,0 l/m 0 min 0 min 0 W/m 16,1 km/h (3 Bft) 93,75 %
23.03.2023 02:28 12,4 C 11,7 C 7,8 C 86 % 1004,2 hPa 0,0 l/m 0 min 0 min 0 W/m 16,1 km/h (3 Bft) 91,49 %
23.03.2023 02:30 12,4 C 11,7 C 7,8 C 86 % 1004,0 hPa 0,0 l/m 0 min 0 min 0 W/m 16,1 km/h (3 Bft) 95,74 %
23.03.2023 02:32 12,4 C 11,7 C 7,8 C 86 % 1004,1 hPa 0,0 l/m 0 min 0 min 0 W/m 22,5 km/h (4 Bft) 95,74 %
23.03.2023 02:34 12,5 C 11,7 C 7,8 C 86 % 1004,1 hPa 0,0 l/m 0 min 0 min 0 W/m 25,7 km/h (4 Bft) 93,62 %
23.03.2023 02:36 12,4 C 11,7 C 7,8 C 86 % 1004,1 hPa 0,0 l/m 0 min 0 min 0 W/m 19,3 km/h (3 Bft) 91,67 %
23.03.2023 02:38 12,5 C 11,7 C 7,8 C 86 % 1004,0 hPa 0,0 l/m 0 min 0 min 0 W/m 29,0 km/h (5 Bft) 93,48 %
23.03.2023 02:40 12,4 C 11,7 C 7,8 C 86 % 1003,9 hPa 0,0 l/m 0 min 0 min 0 W/m 25,7 km/h (4 Bft) 97,87 %
23.03.2023 02:42 12,5 C 11,7 C 7,8 C 86 % 1003,8 hPa 0,0 l/m 0 min 0 min 0 W/m 16,1 km/h (3 Bft) 95,74 %
23.03.2023 02:44 12,5 C 11,7 C 7,8 C 86 % 1003,6 hPa 0,0 l/m 0 min 0 min 0 W/m 19,3 km/h (3 Bft) 97,87 %
23.03.2023 02:46 12,4 C 11,7 C 7,8 C 86 % 1003,7 hPa 0,0 l/m 0 min 0 min 0 W/m 19,3 km/h (3 Bft) 100,00 %
23.03.2023 02:48 12,4 C 11,7 C 7,8 C 86 % 1003,5 hPa 0,0 l/m 0 min 0 min 0 W/m 22,5 km/h (4 Bft) 100,00 %
23.03.2023 02:50 12,4 C 11,7 C 7,8 C 86 % 1003,5 hPa 0,0 l/m 0 min 0 min 0 W/m 22,5 km/h (4 Bft) 100,00 %
23.03.2023 02:52 12,4 C 11,7 C 7,8 C 87 % 1003,7 hPa 0,0 l/m 0 min 0 min 0 W/m 12,9 km/h (3 Bft) 97,83 %
23.03.2023 02:54 12,4 C 11,7 C 7,8 C 87 % 1003,9 hPa 0,0 l/m 0 min 0 min 0 W/m 12,9 km/h (3 Bft) 100,00 %
23.03.2023 02:56 12,4 C 11,7 C 7,8 C 87 % 1003,8 hPa 0,0 l/m 0 min 0 min 0 W/m 9,7 km/h (2 Bft) 100,00 %
23.03.2023 02:58 12,3 C 11,7 C 7,8 C 87 % 1004,0 hPa 0,0 l/m 0 min 0 min 0 W/m 16,1 km/h (3 Bft) 100,00 %
23.03.2023 03:00 12,3 C 11,7 C 7,8 C 87 % 1004,0 hPa 0,0 l/m 0 min 0 min 0 W/m 19,3 km/h (3 Bft) 97,87 %
23.03.2023 03:02 12,3 C 11,7 C 7,8 C 87 % 1004,0 hPa 0,0 l/m 0 min 0 min 0 W/m 22,5 km/h (4 Bft) 100,00 %
23.03.2023 03:04 12,3 C 11,7 C 7,8 C 87 % 1004,0 hPa 0,0 l/m 0 min 0 min 0 W/m 22,5 km/h (4 Bft) 100,00 %
23.03.2023 03:06 12,3 C 11,7 C 7,8 C 87 % 1004,0 hPa 0,0 l/m 0 min 0 min 0 W/m 16,1 km/h (3 Bft) 100,00 %
23.03.2023 03:08 12,3 C 11,7 C 7,8 C 87 % 1003,8 hPa 0,0 l/m 0 min 0 min 0 W/m 22,5 km/h (4 Bft) 100,00 %
23.03.2023 03:10 12,3 C 11,7 C 7,8 C 87 % 1003,9 hPa 0,0 l/m 0 min 0 min 0 W/m 32,2 km/h (5 Bft) 100,00 %
23.03.2023 03:12 12,3 C 11,7 C 7,8 C 88 % 1003,8 hPa 0,0 l/m 0 min 0 min 0 W/m 19,3 km/h (3 Bft) 100,00 %
23.03.2023 03:14 12,2 C 11,1 C 7,8 C 88 % 1003,7 hPa 0,0 l/m 0 min 0 min 0 W/m 12,9 km/h (3 Bft) 100,00 %
23.03.2023 03:16 12,2 C 11,1 C 7,8 C 88 % 1003,7 hPa 0,0 l/m 0 min 0 min 0 W/m 19,3 km/h (3 Bft) 100,00 %
23.03.2023 03:18 12,2 C 11,1 C 7,8 C 88 % 1003,6 hPa 0,0 l/m 0 min 0 min 0 W/m 16,1 km/h (3 Bft) 100,00 %
23.03.2023 03:20 12,2 C 11,1 C 7,8 C 88 % 1003,7 hPa 0,0 l/m 0 min 0 min 0 W/m 12,9 km/h (3 Bft) 100,00 %
23.03.2023 03:22 12,2 C 11,1 C 7,8 C 88 % 1003,8 hPa 0,0 l/m 0 min 0 min 0 W/m 12,9 km/h (3 Bft) 97,87 %
23.03.2023 03:24 12,2 C 11,1 C 7,8 C 88 % 1003,7 hPa 0,0 l/m 0 min 0 min 0 W/m 19,3 km/h (3 Bft) 100,00 %
23.03.2023 03:26 12,1 C 11,1 C 7,8 C 88 % 1003,7 hPa 0,0 l/m 0 min 0 min 0 W/m 6,4 km/h (2 Bft) 97,87 %
23.03.2023 03:28 12,1 C 11,1 C 7,2 C 88 % 1003,6 hPa 0,0 l/m 0 min 0 min 0 W/m 12,9 km/h (3 Bft) 100,00 %
23.03.2023 03:30 12,1 C 11,1 C 7,2 C 89 % 1003,6 hPa 0,0 l/m 0 min 0 min 0 W/m 9,7 km/h (2 Bft) 97,83 %
23.03.2023 03:32 12,1 C 11,1 C 7,2 C 88 % 1003,6 hPa 0,0 l/m 0 min 0 min 0 W/m 16,1 km/h (3 Bft) 100,00 %
23.03.2023 03:34 12,0 C 11,1 C 7,2 C 89 % 1003,5 hPa 0,0 l/m 0 min 0 min 0 W/m 9,7 km/h (2 Bft) 100,00 %
23.03.2023 03:36 12,0 C 11,1 C 7,2 C 89 % 1003,5 hPa 0,0 l/m 0 min 0 min 0 W/m 16,1 km/h (3 Bft) 97,87 %
23.03.2023 03:38 12,0 C 11,1 C 7,2 C 89 % 1003,5 hPa 0,0 l/m 0 min 0 min 0 W/m 12,9 km/h (3 Bft) 100,00 %
23.03.2023 03:40 11,9 C 11,1 C 7,2 C 89 % 1003,4 hPa 0,0 l/m 0 min 0 min 0 W/m 12,9 km/h (3 Bft) 100,00 %
23.03.2023 03:42 11,9 C 11,1 C 7,2 C 89 % 1003,5 hPa 0,0 l/m 0 min 0 min 0 W/m 12,9 km/h (3 Bft) 97,87 %
23.03.2023 03:44 11,9 C 11,1 C 7,2 C 89 % 1003,5 hPa 0,0 l/m 0 min 0 min 0 W/m 16,1 km/h (3 Bft) 100,00 %
23.03.2023 03:46 11,9 C 11,1 C 7,2 C 89 % 1003,5 hPa 0,0 l/m 0 min 0 min 0 W/m 12,9 km/h (3 Bft) 97,87 %
23.03.2023 03:48 11,9 C 11,1 C 7,2 C 89 % 1003,4 hPa 0,0 l/m 0 min 0 min 0 W/m 9,7 km/h (2 Bft) 100,00 %
23.03.2023 03:50 11,8 C 11,1 C 7,2 C 89 % 1003,5 hPa 0,0 l/m 0 min 0 min 0 W/m 12,9 km/h (3 Bft) 100,00 %
23.03.2023 03:52 11,8 C 11,1 C 7,2 C 89 % 1003,5 hPa 0,0 l/m 0 min 0 min 0 W/m 22,5 km/h (4 Bft) 100,00 %
23.03.2023 03:54 11,8 C 11,1 C 7,2 C 89 % 1003,6 hPa 0,0 l/m 0 min 0 min 0 W/m 12,9 km/h (3 Bft) 95,83 %
23.03.2023 03:56 11,8 C 11,1 C 7,2 C 89 % 1003,6 hPa 0,0 l/m 0 min 0 min 0 W/m 16,1 km/h (3 Bft) 100,00 %
23.03.2023 03:58 11,8 C 11,1 C 7,2 C 89 % 1003,5 hPa 0,0 l/m 0 min 0 min 0 W/m 16,1 km/h (3 Bft) 100,00 %
23.03.2023 04:00 11,8 C 11,1 C 7,2 C 89 % 1003,6 hPa 0,0 l/m 0 min 0 min 0 W/m 16,1 km/h (3 Bft) 95,74 %
23.03.2023 04:02 11,8 C 11,1 C 7,2 C 89 % 1003,6 hPa 0,0 l/m 0 min 0 min 0 W/m 16,1 km/h (3 Bft) 97,87 %
23.03.2023 04:04 11,7 C 11,1 C 7,2 C 89 % 1003,5 hPa 0,0 l/m 0 min 0 min 0 W/m 16,1 km/h (3 Bft) 97,87 %
23.03.2023 04:06 11,7 C 11,1 C 7,2 C 89 % 1003,5 hPa 0,0 l/m 0 min 0 min 0 W/m 12,9 km/h (3 Bft) 97,92 %
23.03.2023 04:08 11,7 C 11,1 C 7,2 C 89 % 1003,5 hPa 0,0 l/m 0 min 0 min 0 W/m 12,9 km/h (3 Bft) 97,87 %
23.03.2023 04:10 11,7 C 11,1 C 7,2 C 89 % 1003,5 hPa 0,0 l/m 0 min 0 min 0 W/m 12,9 km/h (3 Bft) 97,87 %
23.03.2023 04:12 11,7 C 11,1 C 7,2 C 89 % 1003,4 hPa 0,0 l/m 0 min 0 min 0 W/m 12,9 km/h (3 Bft) 97,22 %
23.03.2023 04:14 11,7 C 11,1 C 7,2 C 89 % 1003,5 hPa 0,0 l/m 0 min 0 min 0 W/m 12,9 km/h (3 Bft) 100,00 %
23.03.2023 04:16 11,7 C 11,1 C 7,2 C 89 % 1003,5 hPa 0,0 l/m 0 min 0 min 0 W/m 22,5 km/h (4 Bft) 95,65 %
23.03.2023 04:18 11,8 C 11,1 C 7,2 C 89 % 1003,4 hPa 0,0 l/m 0 min 0 min 0 W/m 19,3 km/h (3 Bft) 97,87 %
23.03.2023 04:20 11,8 C 11,1 C 7,8 C 89 % 1003,5 hPa 0,0 l/m 0 min 0 min 0 W/m 16,1 km/h (3 Bft) 97,87 %
23.03.2023 04:22 11,8 C 11,1 C 7,8 C 89 % 1003,4 hPa 0,0 l/m 0 min 0 min 0 W/m 16,1 km/h (3 Bft) 98,15 %
23.03.2023 04:24 11,8 C 11,1 C 7,8 C 89 % 1003,4 hPa 0,0 l/m 0 min 0 min 0 W/m 16,1 km/h (3 Bft) 95,65 %
23.03.2023 04:26 11,8 C 11,1 C 7,8 C 89 % 1003,4 hPa 0,0 l/m 0 min 0 min 0 W/m 25,7 km/h (4 Bft) 97,87 %
23.03.2023 04:28 11,9 C 11,1 C 7,8 C 89 % 1003,3 hPa 0,0 l/m 0 min 0 min 0 W/m 12,9 km/h (3 Bft) 97,87 %
23.03.2023 04:30 11,9 C 11,1 C 7,8 C 88 % 1003,3 hPa 0,0 l/m 0 min 0 min 0 W/m 22,5 km/h (4 Bft) 97,87 %
23.03.2023 04:32 11,9 C 11,1 C 7,8 C 88 % 1003,4 hPa 0,0 l/m 0 min 0 min 0 W/m 16,1 km/h (3 Bft) 97,87 %
23.03.2023 04:34 11,9 C 11,1 C 7,8 C 88 % 1003,4 hPa 0,0 l/m 0 min 0 min 0 W/m 29,0 km/h (5 Bft) 95,74 %
23.03.2023 04:36 11,9 C 11,7 C 7,8 C 88 % 1003,4 hPa 0,0 l/m 0 min 0 min 0 W/m 29,0 km/h (5 Bft) 97,87 %
23.03.2023 04:38 11,9 C 11,7 C 7,8 C 88 % 1003,3 hPa 0,0 l/m 0 min 0 min 0 W/m 19,3 km/h (3 Bft) 97,96 %
23.03.2023 04:40 12,0 C 11,7 C 7,8 C 88 % 1003,4 hPa 0,0 l/m 0 min 0 min 0 W/m 22,5 km/h (4 Bft) 95,74 %
23.03.2023 04:42 12,1 C 11,7 C 7,8 C 88 % 1003,3 hPa 0,0 l/m 0 min 0 min 0 W/m 22,5 km/h (4 Bft) 97,87 %
23.03.2023 04:44 12,1 C 11,7 C 7,8 C 88 % 1003,2 hPa 0,0 l/m 0 min 0 min 0 W/m 29,0 km/h (5 Bft) 93,62 %
23.03.2023 04:46 12,1 C 11,7 C 7,8 C 88 % 1003,3 hPa 0,0 l/m 0 min 0 min 0 W/m 25,7 km/h (4 Bft) 95,74 %
23.03.2023 04:48 12,1 C 11,7 C 7,8 C 88 % 1003,2 hPa 0,0 l/m 0 min 0 min 0 W/m 22,5 km/h (4 Bft) 95,74 %
23.03.2023 04:50 12,1 C 11,7 C 7,8 C 88 % 1003,2 hPa 0,0 l/m 0 min 0 min 0 W/m 16,1 km/h (3 Bft) 95,65 %
23.03.2023 04:52 12,1 C 11,7 C 7,8 C 88 % 1003,2 hPa 0,0 l/m 0 min 0 min 0 W/m 25,7 km/h (4 Bft) 95,74 %
23.03.2023 04:54 12,2 C 11,7 C 7,8 C 88 % 1003,4 hPa 0,0 l/m 0 min 0 min 0 W/m 22,5 km/h (4 Bft) 93,62 %
23.03.2023 04:56 12,2 C 11,7 C 7,8 C 88 % 1003,4 hPa 0,0 l/m 0 min 0 min 0 W/m 25,7 km/h (4 Bft) 95,74 %
23.03.2023 04:58 12,2 C 11,7 C 7,8 C 87 % 1003,4 hPa 0,0 l/m 0 min 0 min 0 W/m 29,0 km/h (5 Bft) 97,30 %
23.03.2023 05:00 12,2 C 11,7 C 7,8 C 87 % 1003,5 hPa 0,0 l/m 0 min 0 min 0 W/m 25,7 km/h (4 Bft) 93,62 %
23.03.2023 05:02 12,3 C 11,7 C 7,8 C 87 % 1003,3 hPa 0,0 l/m 0 min 0 min 0 W/m 45,1 km/h (6 Bft) 95,74 %
23.03.2023 05:04 12,3 C 11,7 C 7,8 C 87 % 1003,4 hPa 0,0 l/m 0 min 0 min 0 W/m 22,5 km/h (4 Bft) 95,74 %
23.03.2023 05:06 12,3 C 11,7 C 7,8 C 87 % 1003,3 hPa 0,0 l/m 0 min 0 min 0 W/m 29,0 km/h (5 Bft) 92,59 %
23.03.2023 05:08 12,3 C 11,7 C 7,8 C 87 % 1003,4 hPa 0,0 l/m 0 min 0 min 0 W/m 29,0 km/h (5 Bft) 95,74 %
23.03.2023 05:10 12,3 C 11,7 C 7,8 C 87 % 1003,3 hPa 0,0 l/m 0 min 0 min 0 W/m 25,7 km/h (4 Bft) 95,74 %
23.03.2023 05:12 12,3 C 11,7 C 7,8 C 87 % 1003,3 hPa 0,0 l/m 0 min 0 min 0 W/m 22,5 km/h (4 Bft) 97,87 %
23.03.2023 05:14 12,4 C 11,7 C 7,8 C 87 % 1003,4 hPa 0,0 l/m 0 min 0 min 0 W/m 35,4 km/h (5 Bft) 95,74 %
23.03.2023 05:16 12,4 C 11,7 C 7,8 C 87 % 1003,4 hPa 0,0 l/m 0 min 0 min 0 W/m 29,0 km/h (5 Bft) 95,65 %
23.03.2023 05:18 12,4 C 11,7 C 7,8 C 86 % 1003,4 hPa 0,0 l/m 0 min 0 min 0 W/m 25,7 km/h (4 Bft) 92,00 %
23.03.2023 05:20 12,4 C 11,7 C 7,8 C 86 % 1003,4 hPa 0,0 l/m 0 min 0 min 0 W/m 22,5 km/h (4 Bft) 95,74 %
23.03.2023 05:22 12,4 C 11,7 C 7,8 C 86 % 1003,5 hPa 0,0 l/m 0 min 0 min 0 W/m 25,7 km/h (4 Bft) 97,87 %
23.03.2023 05:24 12,4 C 11,7 C 7,8 C 86 % 1003,4 hPa 0,0 l/m 0 min 0 min 0 W/m 16,1 km/h (3 Bft) 95,74 %
23.03.2023 05:26 12,4 C 11,7 C 7,8 C 86 % 1003,4 hPa 0,0 l/m 0 min 0 min 0 W/m 25,7 km/h (4 Bft) 95,74 %
23.03.2023 05:28 12,4 C 11,7 C 7,8 C 86 % 1003,5 hPa 0,0 l/m 0 min 0 min 0 W/m 25,7 km/h (4 Bft) 97,22 %
23.03.2023 05:30 12,4 C 11,7 C 7,8 C 86 % 1003,5 hPa 0,0 l/m 0 min 0 min 0 W/m 22,5 km/h (4 Bft) 95,74 %
23.03.2023 05:32 12,4 C 11,7 C 7,8 C 86 % 1003,6 hPa 0,0 l/m 0 min 0 min 0 W/m 22,5 km/h (4 Bft) 100,00 %
23.03.2023 05:34 12,4 C 11,7 C 7,8 C 86 % 1003,5 hPa 0,0 l/m 0 min 0 min 0 W/m 32,2 km/h (5 Bft) 100,00 %
23.03.2023 05:36 12,4 C 11,7 C 7,8 C 86 % 1003,6 hPa 0,0 l/m 0 min 0 min 0 W/m 22,5 km/h (4 Bft) 95,65 %
23.03.2023 05:38 12,4 C 11,7 C 7,8 C 86 % 1003,6 hPa 0,0 l/m 0 min 0 min 0 W/m 25,7 km/h (4 Bft) 97,87 %
23.03.2023 05:40 12,4 C 11,7 C 7,8 C 86 % 1003,6 hPa 0,0 l/m 0 min 0 min 0 W/m 19,3 km/h (3 Bft) 100,00 %
23.03.2023 05:42 12,4 C 11,7 C 7,8 C 86 % 1003,6 hPa 0,0 l/m 0 min 0 min 0 W/m 19,3 km/h (3 Bft) 78,72 %
23.03.2023 05:44 12,4 C 11,7 C 7,8 C 86 % 1003,7 hPa 0,0 l/m 0 min 0 min 0 W/m 25,7 km/h (4 Bft) 75,61 %
23.03.2023 05:46 12,4 C 11,7 C 7,8 C 86 % 1003,7 hPa 0,0 l/m 0 min 0 min 0 W/m 41,8 km/h (6 Bft) 97,87 %
23.03.2023 05:48 12,4 C 11,7 C 7,8 C 86 % 1003,7 hPa 0,0 l/m 0 min 0 min 0 W/m 19,3 km/h (3 Bft) 100,00 %
23.03.2023 05:50 12,4 C 11,7 C 7,8 C 86 % 1003,7 hPa 0,0 l/m 0 min 0 min 0 W/m 16,1 km/h (3 Bft) 100,00 %
23.03.2023 05:52 12,4 C 11,7 C 7,8 C 86 % 1003,7 hPa 0,0 l/m 0 min 0 min 0 W/m 29,0 km/h (5 Bft) 97,87 %
23.03.2023 05:54 12,4 C 11,7 C 7,8 C 86 % 1003,7 hPa 0,0 l/m 0 min 0 min 0 W/m 19,3 km/h (3 Bft) 100,00 %
23.03.2023 05:56 12,4 C 11,7 C 7,8 C 86 % 1003,7 hPa 0,0 l/m 0 min 0 min 0 W/m 29,0 km/h (5 Bft) 97,87 %
23.03.2023 05:58 12,4 C 11,7 C 7,8 C 86 % 1003,7 hPa 0,0 l/m 0 min 0 min 0 W/m 16,1 km/h (3 Bft) 95,65 %
23.03.2023 06:00 12,4 C 11,7 C 7,8 C 86 % 1003,8 hPa 0,0 l/m 0 min 0 min 0 W/m 29,0 km/h (5 Bft) 93,62 %
23.03.2023 06:02 12,4 C 11,7 C 7,8 C 86 % 1003,8 hPa 0,0 l/m 0 min 0 min 0 W/m 16,1 km/h (3 Bft) 97,87 %
23.03.2023 06:04 12,4 C 11,7 C 7,8 C 86 % 1003,8 hPa 0,0 l/m 0 min 0 min 0 W/m 25,7 km/h (4 Bft) 97,87 %
23.03.2023 06:07 12,4 C 11,7 C 7,8 C 85 % 1003,7 hPa 0,0 l/m 0 min 0 min 0 W/m 35,4 km/h (5 Bft) 97,22 %
23.03.2023 06:08 12,4 C 11,7 C 7,8 C 85 % 1003,7 hPa 0,0 l/m 0 min 0 min 0 W/m 22,5 km/h (4 Bft) 100,00 %
23.03.2023 06:12 12,4 C 11,7 C 7,8 C 85 % 1003,8 hPa 0,0 l/m 0 min 0 min 0 W/m 16,1 km/h (3 Bft) 98,18 %
23.03.2023 06:14 12,4 C 11,7 C 7,8 C 85 % 1003,8 hPa 0,0 l/m 0 min 0 min 0 W/m 25,7 km/h (4 Bft) 97,83 %
23.03.2023 06:16 12,4 C 11,7 C 7,8 C 85 % 1003,8 hPa 0,0 l/m 0 min 0 min 0 W/m 16,1 km/h (3 Bft) 97,87 %
23.03.2023 06:18 12,4 C 11,7 C 7,8 C 85 % 1003,8 hPa 0,0 l/m 0 min 0 min 0 W/m 29,0 km/h (5 Bft) 97,87 %
23.03.2023 06:20 12,4 C 11,7 C 7,8 C 85 % 1003,8 hPa 0,0 l/m 0 min 0 min 0 W/m 22,5 km/h (4 Bft) 97,87 %
23.03.2023 06:22 12,4 C 11,7 C 7,8 C 85 % 1003,8 hPa 0,0 l/m 0 min 0 min 0 W/m 25,7 km/h (4 Bft) 95,74 %
23.03.2023 06:24 12,4 C 11,7 C 7,8 C 85 % 1003,8 hPa 0,0 l/m 0 min 0 min 0 W/m 35,4 km/h (5 Bft) 97,87 %
23.03.2023 06:26 12,4 C 11,7 C 7,8 C 85 % 1003,8 hPa 0,0 l/m 0 min 0 min 0 W/m 19,3 km/h (3 Bft) 93,62 %
23.03.2023 06:28 12,4 C 11,7 C 7,8 C 85 % 1003,9 hPa 0,0 l/m 0 min 0 min 0 W/m 29,0 km/h (5 Bft) 100,00 %
23.03.2023 06:30 12,4 C 11,7 C 7,8 C 85 % 1003,9 hPa 0,0 l/m 0 min 0 min 0 W/m 12,9 km/h (3 Bft) 100,00 %
23.03.2023 06:32 12,4 C 11,7 C 7,8 C 85 % 1003,9 hPa 0,0 l/m 0 min 0 min 0 W/m 25,7 km/h (4 Bft) 97,87 %
23.03.2023 06:34 12,4 C 11,7 C 7,8 C 85 % 1003,9 hPa 0,0 l/m 0 min 0 min 0 W/m 25,7 km/h (4 Bft) 100,00 %
23.03.2023 06:36 12,4 C 11,7 C 7,8 C 85 % 1003,8 hPa 0,0 l/m 0 min 0 min 0 W/m 19,3 km/h (3 Bft) 100,00 %
23.03.2023 06:38 12,4 C 11,7 C 7,8 C 85 % 1003,8 hPa 0,0 l/m 0 min 0 min 0 W/m 19,3 km/h (3 Bft) 100,00 %
23.03.2023 06:40 12,4 C 11,7 C 7,8 C 85 % 1003,9 hPa 0,0 l/m 0 min 0 min 0 W/m 22,5 km/h (4 Bft) 97,87 %
23.03.2023 06:42 12,4 C 11,7 C 7,8 C 85 % 1004,0 hPa 0,0 l/m 0 min 0 min 1 W/m 22,5 km/h (4 Bft) 100,00 %
23.03.2023 06:44 12,3 C 11,7 C 7,8 C 85 % 1003,9 hPa 0,0 l/m 0 min 0 min 5 W/m 25,7 km/h (4 Bft) 97,87 %
23.03.2023 06:46 12,4 C 11,7 C 7,8 C 85 % 1004,0 hPa 0,0 l/m 0 min 0 min 5 W/m 35,4 km/h (5 Bft) 97,87 %
23.03.2023 06:48 12,4 C 11,7 C 7,8 C 85 % 1003,9 hPa 0,0 l/m 0 min 0 min 5 W/m 35,4 km/h (5 Bft) 100,00 %
23.03.2023 06:50 12,4 C 11,7 C 7,8 C 85 % 1003,9 hPa 0,0 l/m 0 min 0 min 7 W/m 22,5 km/h (4 Bft) 100,00 %
23.03.2023 06:52 12,4 C 11,7 C 7,8 C 85 % 1003,9 hPa 0,0 l/m 0 min 0 min 9 W/m 22,5 km/h (4 Bft) 95,74 %
23.03.2023 06:54 12,4 C 11,7 C 7,8 C 85 % 1003,9 hPa 0,0 l/m 0 min 0 min 9 W/m 22,5 km/h (4 Bft) 100,00 %
23.03.2023 06:56 12,4 C 11,7 C 7,8 C 85 % 1003,9 hPa 0,0 l/m 0 min 0 min 9 W/m 22,5 km/h (4 Bft) 100,00 %
23.03.2023 06:58 12,4 C 11,7 C 7,8 C 85 % 1003,9 hPa 0,0 l/m 0 min 0 min 9 W/m 25,7 km/h (4 Bft) 100,00 %
23.03.2023 07:00 12,4 C 11,7 C 7,8 C 85 % 1003,9 hPa 0,0 l/m 0 min 0 min 11 W/m 29,0 km/h (5 Bft) 100,00 %
23.03.2023 07:02 12,4 C 11,7 C 7,8 C 85 % 1003,9 hPa 0,0 l/m 0 min 0 min 12 W/m 29,0 km/h (5 Bft) 100,00 %
23.03.2023 07:04 12,3 C 11,7 C 7,8 C 85 % 1003,9 hPa 0,0 l/m 0 min 0 min 15 W/m 29,0 km/h (5 Bft) 100,00 %
23.03.2023 07:06 12,3 C 11,7 C 7,8 C 85 % 1004,0 hPa 0,0 l/m 0 min 0 min 19 W/m 32,2 km/h (5 Bft) 100,00 %
23.03.2023 07:08 12,3 C 11,7 C 7,8 C 85 % 1004,0 hPa 0,0 l/m 0 min 0 min 22 W/m 22,5 km/h (4 Bft) 100,00 %
23.03.2023 07:10 12,3 C 11,7 C 7,8 C 85 % 1003,9 hPa 0,0 l/m 0 min 0 min 25 W/m 22,5 km/h (4 Bft) 100,00 %
23.03.2023 07:12 12,3 C 11,7 C 7,8 C 85 % 1004,0 hPa 0,0 l/m 0 min 0 min 28 W/m 19,3 km/h (3 Bft) 97,87 %
23.03.2023 07:14 12,3 C 11,7 C 7,8 C 85 % 1004,0 hPa 0,0 l/m 0 min 0 min 29 W/m 16,1 km/h (3 Bft) 100,00 %
23.03.2023 07:16 12,3 C 11,7 C 7,8 C 85 % 1004,0 hPa 0,0 l/m 0 min 0 min 29 W/m 29,0 km/h (5 Bft) 97,87 %
23.03.2023 07:18 12,3 C 11,7 C 7,8 C 85 % 1004,0 hPa 0,0 l/m 0 min 0 min 36 W/m 19,3 km/h (3 Bft) 100,00 %
23.03.2023 07:20 12,3 C 11,7 C 7,8 C 85 % 1004,1 hPa 0,0 l/m 0 min 0 min 46 W/m 16,1 km/h (3 Bft) 97,83 %
23.03.2023 07:22 12,3 C 11,7 C 7,8 C 85 % 1004,1 hPa 0,0 l/m 0 min 0 min 44 W/m 29,0 km/h (5 Bft) 100,00 %
23.03.2023 07:24 12,3 C 11,7 C 7,8 C 85 % 1004,2 hPa 0,0 l/m 0 min 0 min 42 W/m 19,3 km/h (3 Bft) 97,87 %
23.03.2023 07:26 12,3 C 11,7 C 7,8 C 85 % 1004,1 hPa 0,0 l/m 0 min 0 min 51 W/m 29,0 km/h (5 Bft) 97,87 %
23.03.2023 07:28 12,3 C 11,7 C 7,8 C 85 % 1004,1 hPa 0,0 l/m 0 min 0 min 54 W/m 25,7 km/h (4 Bft) 97,87 %
23.03.2023 07:30 12,3 C 11,7 C 7,8 C 85 % 1004,1 hPa 0,0 l/m 0 min 0 min 49 W/m 22,5 km/h (4 Bft) 95,74 %
23.03.2023 07:32 12,3 C 11,7 C 7,8 C 85 % 1004,2 hPa 0,0 l/m 0 min 0 min 39 W/m 25,7 km/h (4 Bft) 95,74 %
23.03.2023 07:34 12,3 C 11,7 C 7,8 C 85 % 1004,2 hPa 0,0 l/m 0 min 0 min 34 W/m 16,1 km/h (3 Bft) 95,65 %
23.03.2023 07:36 12,3 C 11,7 C 7,8 C 85 % 1004,2 hPa 0,0 l/m 0 min 0 min 35 W/m 16,1 km/h (3 Bft) 97,87 %
23.03.2023 07:38 12,3 C 11,7 C 7,8 C 85 % 1004,1 hPa 0,0 l/m 0 min 0 min 37 W/m 19,3 km/h (3 Bft) 95,74 %
23.03.2023 07:40 12,3 C 11,7 C 7,8 C 85 % 1004,1 hPa 0,0 l/m 0 min 0 min 42 W/m 19,3 km/h (3 Bft) 91,49 %
23.03.2023 07:42 12,3 C 11,7 C 7,8 C 85 % 1004,2 hPa 0,0 l/m 0 min 0 min 50 W/m 16,1 km/h (3 Bft) 95,74 %
23.03.2023 07:44 12,3 C 11,7 C 7,8 C 85 % 1004,3 hPa 0,0 l/m 0 min 0 min 55 W/m 19,3 km/h (3 Bft) 93,62 %
23.03.2023 07:46 12,3 C 11,7 C 7,8 C 85 % 1004,3 hPa 0,0 l/m 0 min 0 min 58 W/m 12,9 km/h (3 Bft) 93,62 %
23.03.2023 07:48 12,4 C 11,7 C 7,8 C 85 % 1004,3 hPa 0,0 l/m 0 min 0 min 61 W/m 38,6 km/h (5 Bft) 93,48 %
23.03.2023 07:50 12,4 C 12,2 C 7,8 C 85 % 1004,2 hPa 0,0 l/m 0 min 0 min 67 W/m 16,1 km/h (3 Bft) 95,74 %
23.03.2023 07:52 12,4 C 12,2 C 8,3 C 84 % 1004,1 hPa 0,0 l/m 0 min 0 min 72 W/m 25,7 km/h (4 Bft) 93,62 %
23.03.2023 07:54 12,4 C 12,2 C 8,3 C 84 % 1004,2 hPa 0,0 l/m 0 min 0 min 74 W/m 25,7 km/h (4 Bft) 93,62 %
23.03.2023 07:56 12,4 C 12,2 C 8,3 C 84 % 1004,3 hPa 0,0 l/m 0 min 0 min 72 W/m 22,5 km/h (4 Bft) 93,62 %
23.03.2023 07:58 12,4 C 12,2 C 8,3 C 84 % 1004,3 hPa 0,0 l/m 0 min 0 min 67 W/m 29,0 km/h (5 Bft) 91,49 %
23.03.2023 08:00 12,4 C 12,2 C 8,3 C 84 % 1004,3 hPa 0,0 l/m 0 min 0 min 60 W/m 29,0 km/h (5 Bft) 93,48 %
23.03.2023 08:02 12,4 C 12,2 C 8,3 C 84 % 1004,3 hPa 0,0 l/m 0 min 0 min 56 W/m 19,3 km/h (3 Bft) 91,49 %
23.03.2023 08:04 12,5 C 12,2 C 8,3 C 84 % 1004,3 hPa 0,0 l/m 0 min 0 min 56 W/m 19,3 km/h (3 Bft) 91,49 %
23.03.2023 08:06 12,5 C 12,2 C 8,3 C 84 % 1004,4 hPa 0,0 l/m 0 min 0 min 58 W/m 25,7 km/h (4 Bft) 93,22 %
23.03.2023 08:08 12,5 C 12,2 C 8,3 C 84 % 1004,4 hPa 0,0 l/m 0 min 0 min 61 W/m 32,2 km/h (5 Bft) 94,29 %
23.03.2023 08:10 12,5 C 12,2 C 8,3 C 84 % 1004,4 hPa 0,0 l/m 0 min 0 min 63 W/m 22,5 km/h (4 Bft) 93,62 %
23.03.2023 08:12 12,5 C 12,2 C 8,3 C 84 % 1004,4 hPa 0,0 l/m 0 min 0 min 70 W/m 25,7 km/h (4 Bft) 95,74 %
23.03.2023 08:14 12,5 C 12,2 C 8,3 C 84 % 1004,4 hPa 0,0 l/m 0 min 0 min 77 W/m 25,7 km/h (4 Bft) 91,30 %
23.03.2023 08:16 12,5 C 12,2 C 8,3 C 84 % 1004,4 hPa 0,0 l/m 0 min 0 min 82 W/m 19,3 km/h (3 Bft) 93,62 %
23.03.2023 08:18 12,6 C 12,2 C 8,3 C 83 % 1004,5 hPa 0,0 l/m 0 min 0 min 86 W/m 29,0 km/h (5 Bft) 93,62 %
23.03.2023 08:20 12,6 C 12,2 C 8,3 C 83 % 1004,5 hPa 0,0 l/m 0 min 0 min 85 W/m 25,7 km/h (4 Bft) 97,87 %
23.03.2023 08:22 12,6 C 12,2 C 8,3 C 83 % 1004,4 hPa 0,0 l/m 0 min 0 min 84 W/m 12,9 km/h (3 Bft) 95,74 %
23.03.2023 08:24 12,6 C 12,2 C 8,3 C 83 % 1004,5 hPa 0,0 l/m 0 min 0 min 74 W/m 19,3 km/h (3 Bft) 95,74 %
23.03.2023 08:26 12,6 C 12,2 C 8,3 C 83 % 1004,4 hPa 0,0 l/m 0 min 0 min 72 W/m 32,2 km/h (5 Bft) 95,74 %
23.03.2023 08:28 12,6 C 12,2 C 8,3 C 83 % 1004,5 hPa 0,0 l/m 0 min 0 min 77 W/m 32,2 km/h (5 Bft) 100,00 %
23.03.2023 08:30 12,6 C 12,2 C 8,3 C 83 % 1004,4 hPa 0,0 l/m 0 min 0 min 76 W/m 25,7 km/h (4 Bft) 95,74 %
23.03.2023 08:32 12,6 C 12,2 C 8,3 C 83 % 1004,4 hPa 0,0 l/m 0 min 0 min 76 W/m 32,2 km/h (5 Bft) 93,62 %
23.03.2023 08:34 12,6 C 12,2 C 8,3 C 83 % 1004,4 hPa 0,0 l/m 0 min 0 min 78 W/m 32,2 km/h (5 Bft) 93,62 %
23.03.2023 08:36 12,6 C 12,2 C 8,3 C 83 % 1004,4 hPa 0,0 l/m 0 min 0 min 82 W/m 22,5 km/h (4 Bft) 100,00 %
23.03.2023 08:38 12,6 C 12,2 C 8,3 C 83 % 1004,4 hPa 0,0 l/m 0 min 0 min 84 W/m 22,5 km/h (4 Bft) 100,00 %
23.03.2023 08:40 12,6 C 12,2 C 8,3 C 83 % 1004,4 hPa 0,0 l/m 0 min 0 min 89 W/m 29,0 km/h (5 Bft) 97,83 %
23.03.2023 08:42 12,7 C 12,2 C 8,3 C 83 % 1004,5 hPa 0,0 l/m 0 min 0 min 95 W/m 22,5 km/h (4 Bft) 100,00 %
23.03.2023 08:44 12,7 C 12,2 C 8,3 C 83 % 1004,5 hPa 0,0 l/m 0 min 0 min 102 W/m 32,2 km/h (5 Bft) 100,00 %
23.03.2023 08:46 12,7 C 12,2 C 8,3 C 83 % 1004,5 hPa 0,0 l/m 0 min 0 min 107 W/m 12,9 km/h (3 Bft) 89,36 %
23.03.2023 08:48 12,7 C 12,2 C 8,3 C 82 % 1004,6 hPa 0,0 l/m 0 min 0 min 106 W/m 35,4 km/h (5 Bft) 100,00 %
23.03.2023 08:50 12,7 C 12,2 C 8,3 C 83 % 1004,5 hPa 0,0 l/m 0 min 0 min 105 W/m 29,0 km/h (5 Bft) 100,00 %
23.03.2023 08:52 12,7 C 12,2 C 8,3 C 82 % 1004,5 hPa 0,0 l/m 0 min 0 min 104 W/m 29,0 km/h (5 Bft) 97,87 %
23.03.2023 08:54 12,8 C 12,2 C 8,3 C 82 % 1004,5 hPa 0,0 l/m 0 min 0 min 101 W/m 32,2 km/h (5 Bft) 100,00 %
23.03.2023 08:56 12,8 C 12,2 C 8,3 C 82 % 1004,5 hPa 0,0 l/m 0 min 0 min 102 W/m 19,3 km/h (3 Bft) 100,00 %
23.03.2023 08:58 12,8 C 12,8 C 8,3 C 82 % 1004,5 hPa 0,0 l/m 0 min 0 min 102 W/m 41,8 km/h (6 Bft) 100,00 %
23.03.2023 09:00 12,8 C 12,2 C 8,3 C 82 % 1004,5 hPa 0,0 l/m 0 min 0 min 103 W/m 41,8 km/h (6 Bft) 95,74 %
23.03.2023 09:02 12,8 C 12,8 C 8,9 C 81 % 1004,6 hPa 0,0 l/m 0 min 0 min 109 W/m 32,2 km/h (5 Bft) 100,00 %
23.03.2023 09:04 12,8 C 12,8 C 8,9 C 81 % 1004,5 hPa 0,0 l/m 0 min 0 min 117 W/m 41,8 km/h (6 Bft) 97,87 %
23.03.2023 09:06 12,9 C 12,8 C 8,9 C 81 % 1004,6 hPa 0,0 l/m 0 min 0 min 124 W/m 29,0 km/h (5 Bft) 95,31 %
23.03.2023 09:08 12,9 C 12,8 C 8,9 C 81 % 1004,6 hPa 0,0 l/m 0 min 0 min 129 W/m 41,8 km/h (6 Bft) 97,14 %
23.03.2023 09:10 12,9 C 12,8 C 8,9 C 81 % 1004,6 hPa 0,0 l/m 0 min 0 min 123 W/m 41,8 km/h (6 Bft) 97,87 %
23.03.2023 09:12 12,9 C 12,8 C 8,9 C 81 % 1004,6 hPa 0,0 l/m 0 min 0 min 131 W/m 22,5 km/h (4 Bft) 93,62 %
23.03.2023 09:14 13,0 C 12,8 C 8,9 C 81 % 1004,6 hPa 0,0 l/m 0 min 0 min 151 W/m 29,0 km/h (5 Bft) 100,00 %
23.03.2023 09:16 13,0 C 12,8 C 8,9 C 81 % 1004,5 hPa 0,0 l/m 0 min 0 min 161 W/m 32,2 km/h (5 Bft) 97,56 %
23.03.2023 09:18 13,1 C 12,8 C 8,9 C 81 % 1004,6 hPa 0,0 l/m 0 min 0 min 159 W/m 41,8 km/h (6 Bft) 100,00 %
23.03.2023 09:20 13,1 C 12,8 C 8,9 C 80 % 1004,6 hPa 0,0 l/m 0 min 0 min 152 W/m 32,2 km/h (5 Bft) 100,00 %
23.03.2023 09:22 13,1 C 12,8 C 8,9 C 80 % 1004,6 hPa 0,0 l/m 0 min 0 min 165 W/m 32,2 km/h (5 Bft) 97,83 %
23.03.2023 09:24 13,1 C 13,3 C 8,9 C 80 % 1004,6 hPa 0,0 l/m 0 min 0 min 188 W/m 25,7 km/h (4 Bft) 100,00 %
23.03.2023 09:26 13,2 C 13,3 C 8,9 C 80 % 1004,6 hPa 0,0 l/m 0 min 0 min 188 W/m 38,6 km/h (5 Bft) 100,00 %
23.03.2023 09:28 13,2 C 13,3 C 9,4 C 80 % 1004,6 hPa 0,0 l/m 0 min 0 min 180 W/m 25,7 km/h (4 Bft) 100,00 %
23.03.2023 09:30 13,3 C 13,3 C 9,4 C 80 % 1004,5 hPa 0,0 l/m 0 min 0 min 178 W/m 29,0 km/h (5 Bft) 100,00 %
23.03.2023 09:32 13,3 C 13,3 C 9,4 C 79 % 1004,6 hPa 0,0 l/m 0 min 0 min 180 W/m 35,4 km/h (5 Bft) 100,00 %
23.03.2023 09:34 13,3 C 13,3 C 9,4 C 79 % 1004,6 hPa 0,0 l/m 0 min 0 min 178 W/m 35,4 km/h (5 Bft) 100,00 %
23.03.2023 09:36 13,3 C 13,3 C 9,4 C 79 % 1004,7 hPa 0,0 l/m 0 min 0 min 145 W/m 41,8 km/h (6 Bft) 100,00 %
23.03.2023 09:38 13,3 C 13,3 C 9,4 C 79 % 1004,7 hPa 0,0 l/m 0 min 0 min 139 W/m 25,7 km/h (4 Bft) 100,00 %
23.03.2023 09:40 13,4 C 13,3 C 9,4 C 79 % 1004,7 hPa 0,0 l/m 0 min 0 min 157 W/m 22,5 km/h (4 Bft) 100,00 %
23.03.2023 09:42 13,4 C 13,3 C 9,4 C 79 % 1004,7 hPa 0,0 l/m 0 min 0 min 160 W/m 25,7 km/h (4 Bft) 97,87 %
23.03.2023 09:44 13,4 C 13,3 C 9,4 C 79 % 1004,8 hPa 0,0 l/m 0 min 0 min 145 W/m 25,7 km/h (4 Bft) 100,00 %
23.03.2023 09:46 13,4 C 13,3 C 9,4 C 79 % 1004,7 hPa 0,0 l/m 0 min 0 min 127 W/m 25,7 km/h (4 Bft) 100,00 %
23.03.2023 09:48 13,4 C 13,3 C 9,4 C 79 % 1004,8 hPa 0,0 l/m 0 min 0 min 121 W/m 29,0 km/h (5 Bft) 100,00 %
23.03.2023 09:50 13,4 C 12,8 C 9,4 C 78 % 1004,8 hPa 0,0 l/m 0 min 0 min 116 W/m 41,8 km/h (6 Bft) 100,00 %
23.03.2023 09:52 13,4 C 12,8 C 8,9 C 78 % 1004,8 hPa 0,0 l/m 0 min 0 min 93 W/m 32,2 km/h (5 Bft) 97,87 %
23.03.2023 09:54 13,4 C 12,8 C 8,9 C 78 % 1004,9 hPa 0,0 l/m 0 min 0 min 85 W/m 35,4 km/h (5 Bft) 95,74 %
23.03.2023 09:56 13,4 C 12,8 C 8,9 C 78 % 1004,7 hPa 0,0 l/m 0 min 0 min 75 W/m 19,3 km/h (3 Bft) 97,87 %
23.03.2023 09:58 13,4 C 12,8 C 8,9 C 78 % 1004,8 hPa 0,0 l/m 0 min 0 min 74 W/m 22,5 km/h (4 Bft) 93,62 %
23.03.2023 10:00 13,4 C 12,8 C 8,9 C 79 % 1004,8 hPa 0,0 l/m 0 min 0 min 91 W/m 25,7 km/h (4 Bft) 97,83 %
23.03.2023 10:02 13,4 C 12,8 C 8,9 C 79 % 1004,8 hPa 0,0 l/m 0 min 0 min 92 W/m 29,0 km/h (5 Bft) 97,87 %
23.03.2023 10:04 13,3 C 12,8 C 8,9 C 78 % 1004,8 hPa 0,0 l/m 0 min 0 min 108 W/m 22,5 km/h (4 Bft) 95,74 %
23.03.2023 10:06 13,4 C 12,8 C 8,9 C 79 % 1004,8 hPa 0,0 l/m 0 min 0 min 138 W/m 35,4 km/h (5 Bft) 97,87 %
23.03.2023 10:08 13,4 C 13,3 C 9,4 C 78 % 1004,8 hPa 0,0 l/m 0 min 0 min 153 W/m 41,8 km/h (6 Bft) 95,74 %
23.03.2023 10:10 13,4 C 13,3 C 9,4 C 78 % 1004,8 hPa 0,0 l/m 0 min 0 min 148 W/m 29,0 km/h (5 Bft) 93,62 %
23.03.2023 10:12 13,4 C 13,3 C 9,4 C 79 % 1004,8 hPa 0,0 l/m 0 min 0 min 112 W/m 22,5 km/h (4 Bft) 93,62 %
23.03.2023 10:14 13,4 C 13,3 C 9,4 C 78 % 1004,7 hPa 0,0 l/m 0 min 0 min 74 W/m 22,5 km/h (4 Bft) 93,48 %
23.03.2023 10:16 13,4 C 12,8 C 9,4 C 78 % 1004,9 hPa 0,0 l/m 0 min 0 min 73 W/m 38,6 km/h (5 Bft) 93,62 %
23.03.2023 10:18 13,4 C 12,8 C 9,4 C 78 % 1004,8 hPa 0,0 l/m 0 min 0 min 86 W/m 25,7 km/h (4 Bft) 95,74 %
23.03.2023 10:20 13,4 C 12,8 C 8,9 C 78 % 1004,7 hPa 0,0 l/m 0 min 0 min 80 W/m 25,7 km/h (4 Bft) 95,74 %
23.03.2023 10:22 13,4 C 12,8 C 8,9 C 78 % 1004,8 hPa 0,0 l/m 0 min 0 min 79 W/m 35,4 km/h (5 Bft) 95,74 %
23.03.2023 10:24 13,4 C 12,8 C 8,9 C 78 % 1004,9 hPa 0,0 l/m 0 min 0 min 79 W/m 38,6 km/h (5 Bft) 95,74 %
23.03.2023 10:26 13,4 C 12,8 C 8,9 C 78 % 1004,8 hPa 0,0 l/m 0 min 0 min 62 W/m 25,7 km/h (4 Bft) 93,62 %
23.03.2023 10:28 13,4 C 12,8 C 8,9 C 78 % 1004,8 hPa 0,0 l/m 0 min 0 min 57 W/m 19,3 km/h (3 Bft) 95,65 %
23.03.2023 10:30 13,4 C 12,8 C 8,9 C 78 % 1004,9 hPa 0,0 l/m 0 min 0 min 44 W/m 25,7 km/h (4 Bft) 95,74 %
23.03.2023 10:32 13,4 C 12,8 C 8,9 C 78 % 1005,4 hPa 0,0 l/m 0 min 0 min 27 W/m 22,5 km/h (4 Bft) 91,49 %
23.03.2023 10:34 13,1 C 11,7 C 7,8 C 79 % 1005,6 hPa 0,0 l/m 0 min 2 min 17 W/m 29,0 km/h (5 Bft) 95,74 %
23.03.2023 10:36 12,4 C 10,0 C 6,1 C 81 % 1005,7 hPa 0,2 l/m 0 min 2 min 14 W/m 29,0 km/h (5 Bft) 95,74 %
23.03.2023 10:38 11,8 C 9,4 C 5,6 C 83 % 1005,8 hPa 0,4 l/m 0 min 2 min 17 W/m 19,3 km/h (3 Bft) 97,87 %
23.03.2023 10:40 11,4 C 8,9 C 5,6 C 85 % 1005,8 hPa 0,4 l/m 0 min 2 min 20 W/m 25,7 km/h (4 Bft) 95,74 %
23.03.2023 10:42 11,1 C 8,9 C 5,0 C 87 % 1005,8 hPa 0,2 l/m 0 min 2 min 25 W/m 16,1 km/h (3 Bft) 93,48 %
23.03.2023 10:44 10,7 C 8,9 C 5,0 C 88 % 1005,8 hPa 0,0 l/m 0 min 2 min 36 W/m 19,3 km/h (3 Bft) 95,74 %
23.03.2023 10:46 10,6 C 8,9 C 5,0 C 89 % 1005,8 hPa 0,0 l/m 0 min 0 min 40 W/m 12,9 km/h (3 Bft) 95,74 %
23.03.2023 10:48 10,4 C 9,4 C 5,0 C 89 % 1005,8 hPa 0,0 l/m 0 min 0 min 45 W/m 19,3 km/h (3 Bft) 91,49 %
23.03.2023 10:50 10,3 C 9,4 C 5,0 C 90 % 1005,8 hPa 0,0 l/m 0 min 0 min 64 W/m 12,9 km/h (3 Bft) 95,74 %
23.03.2023 10:52 10,3 C 9,4 C 5,0 C 91 % 1005,9 hPa 0,0 l/m 0 min 0 min 78 W/m 22,5 km/h (4 Bft) 95,74 %
23.03.2023 10:54 10,3 C 9,4 C 5,0 C 91 % 1005,9 hPa 0,0 l/m 0 min 0 min 95 W/m 19,3 km/h (3 Bft) 95,65 %
23.03.2023 10:56 10,2 C 9,4 C 5,0 C 91 % 1005,8 hPa 0,0 l/m 0 min 0 min 92 W/m 12,9 km/h (3 Bft) 97,87 %
23.03.2023 10:58 10,2 C 9,4 C 5,0 C 92 % 1005,8 hPa 0,0 l/m 0 min 0 min 99 W/m 12,9 km/h (3 Bft) 93,62 %
23.03.2023 11:00 10,2 C 9,4 C 5,0 C 92 % 1005,9 hPa 0,0 l/m 0 min 2 min 73 W/m 25,7 km/h (4 Bft) 97,87 %
23.03.2023 11:02 10,2 C 9,4 C 5,0 C 92 % 1005,9 hPa 0,0 l/m 0 min 2 min 55 W/m 6,4 km/h (2 Bft) 95,74 %
23.03.2023 11:04 10,2 C 9,4 C 5,0 C 92 % 1006,0 hPa 0,0 l/m 0 min 0 min 52 W/m 6,4 km/h (2 Bft) 93,62 %
23.03.2023 11:06 10,1 C 9,4 C 5,0 C 93 % 1006,0 hPa 0,0 l/m 0 min 2 min 70 W/m 16,1 km/h (3 Bft) 95,74 %
23.03.2023 11:08 10,1 C 9,4 C 5,0 C 93 % 1006,0 hPa 0,0 l/m 0 min 2 min 58 W/m 19,3 km/h (3 Bft) 97,83 %
23.03.2023 11:10 10,1 C 9,4 C 5,0 C 93 % 1006,0 hPa 0,0 l/m 0 min 2 min 57 W/m 12,9 km/h (3 Bft) 95,74 %
23.03.2023 11:12 10,0 C 9,4 C 5,0 C 93 % 1006,1 hPa 0,0 l/m 0 min 0 min 51 W/m 22,5 km/h (4 Bft) 97,87 %
23.03.2023 11:14 9,9 C 9,4 C 5,0 C 93 % 1006,1 hPa 0,0 l/m 0 min 0 min 40 W/m 22,5 km/h (4 Bft) 97,87 %
23.03.2023 11:16 9,9 C 8,9 C 5,0 C 93 % 1006,1 hPa 0,0 l/m 0 min 0 min 41 W/m 12,9 km/h (3 Bft) 95,74 %
23.03.2023 11:18 9,8 C 8,9 C 5,0 C 93 % 1006,1 hPa 0,0 l/m 0 min 2 min 50 W/m 12,9 km/h (3 Bft) 100,00 %
23.03.2023 11:20 9,8 C 8,9 C 5,0 C 93 % 1006,1 hPa 0,0 l/m 0 min 2 min 41 W/m 16,1 km/h (3 Bft) 100,00 %
23.03.2023 11:22 9,8 C 8,9 C 5,0 C 93 % 1006,1 hPa 0,0 l/m 0 min 2 min 39 W/m 16,1 km/h (3 Bft) 100,00 %
23.03.2023 11:24 9,8 C 8,9 C 5,0 C 93 % 1006,1 hPa 0,0 l/m 0 min 2 min 53 W/m 9,7 km/h (2 Bft) 100,00 %
23.03.2023 11:26 9,8 C 8,9 C 5,0 C 94 % 1006,1 hPa 0,0 l/m 0 min 2 min 62 W/m 12,9 km/h (3 Bft) 100,00 %
23.03.2023 11:28 9,8 C 8,9 C 5,0 C 94 % 1006,0 hPa 0,2 l/m 0 min 0 min 67 W/m 6,4 km/h (2 Bft) 100,00 %
23.03.2023 11:30 9,8 C 8,9 C 5,0 C 94 % 1006,1 hPa 0,0 l/m 0 min 2 min 36 W/m 6,4 km/h (2 Bft) 100,00 %
23.03.2023 11:32 9,8 C 8,9 C 5,0 C 94 % 1006,0 hPa 0,0 l/m 0 min 2 min 37 W/m 6,4 km/h (2 Bft) 100,00 %
23.03.2023 11:34 9,8 C 8,9 C 5,6 C 94 % 1006,0 hPa 0,0 l/m 0 min 2 min 36 W/m 12,9 km/h (3 Bft) 97,83 %
23.03.2023 11:36 9,7 C 8,9 C 5,0 C 94 % 1006,1 hPa 0,0 l/m 0 min 2 min 40 W/m 12,9 km/h (3 Bft) 97,87 %
23.03.2023 11:38 9,7 C 8,9 C 5,0 C 94 % 1006,0 hPa 0,0 l/m 0 min 2 min 45 W/m 12,9 km/h (3 Bft) 100,00 %
23.03.2023 11:40 9,7 C 8,9 C 5,0 C 94 % 1006,1 hPa 0,0 l/m 0 min 0 min 58 W/m 12,9 km/h (3 Bft) 100,00 %
23.03.2023 11:42 9,7 C 8,9 C 5,0 C 94 % 1006,1 hPa 0,2 l/m 0 min 2 min 51 W/m 12,9 km/h (3 Bft) 100,00 %
23.03.2023 11:44 9,7 C 8,9 C 5,6 C 95 % 1006,1 hPa 0,0 l/m 0 min 2 min 58 W/m 6,4 km/h (2 Bft) 97,87 %
23.03.2023 11:46 9,7 C 9,4 C 5,6 C 95 % 1006,0 hPa 0,0 l/m 0 min 2 min 54 W/m 6,4 km/h (2 Bft) 100,00 %
23.03.2023 11:48 9,7 C 9,4 C 5,0 C 95 % 1006,0 hPa 0,0 l/m 0 min 2 min 62 W/m 6,4 km/h (2 Bft) 97,83 %
23.03.2023 11:50 9,7 C 9,4 C 5,0 C 95 % 1006,0 hPa 0,0 l/m 0 min 2 min 82 W/m 6,4 km/h (2 Bft) 95,74 %
23.03.2023 11:52 9,7 C 9,4 C 5,6 C 95 % 1006,0 hPa 0,2 l/m 0 min 2 min 76 W/m 19,3 km/h (3 Bft) 97,87 %
23.03.2023 11:54 9,7 C 9,4 C 5,6 C 95 % 1006,0 hPa 0,0 l/m 0 min 2 min 104 W/m 6,4 km/h (2 Bft) 95,74 %
23.03.2023 11:56 9,7 C 9,4 C 5,6 C 95 % 1006,0 hPa 0,2 l/m 0 min 2 min 168 W/m 6,4 km/h (2 Bft) 97,87 %
23.03.2023 11:58 9,7 C 9,4 C 5,6 C 95 % 1006,1 hPa 0,0 l/m 0 min 2 min 147 W/m 6,4 km/h (2 Bft) 97,87 %
23.03.2023 12:00 9,8 C 9,4 C 5,6 C 95 % 1006,0 hPa 0,0 l/m 0 min 2 min 138 W/m 12,9 km/h (3 Bft) 97,87 %
23.03.2023 12:02 9,8 C 9,4 C 5,6 C 95 % 1006,1 hPa 0,0 l/m 0 min 2 min 155 W/m 12,9 km/h (3 Bft) 97,83 %
23.03.2023 12:04 9,8 C 10,0 C 5,6 C 95 % 1006,0 hPa 0,0 l/m 0 min 2 min 149 W/m 12,9 km/h (3 Bft) 93,62 %
23.03.2023 12:07 9,9 C 9,4 C 5,6 C 95 % 1006,1 hPa 0,0 l/m 0 min 0 min 94 W/m 16,1 km/h (3 Bft) 95,77 %
23.03.2023 12:08 9,9 C 9,4 C 5,6 C 95 % 1006,1 hPa 0,0 l/m 0 min 0 min 76 W/m 12,9 km/h (3 Bft) 100,00 %
23.03.2023 12:12 9,9 C 9,4 C 5,6 C 95 % 1006,1 hPa 0,2 l/m 0 min 4 min 108 W/m 9,7 km/h (2 Bft) 96,61 %
23.03.2023 12:14 9,9 C 9,4 C 5,6 C 96 % 1006,2 hPa 0,0 l/m 0 min 2 min 112 W/m 16,1 km/h (3 Bft) 95,74 %
23.03.2023 12:16 9,9 C 10,0 C 5,6 C 96 % 1006,0 hPa 0,0 l/m 0 min 2 min 178 W/m 16,1 km/h (3 Bft) 97,83 %
23.03.2023 12:18 10,0 C 10,0 C 6,1 C 96 % 1006,1 hPa 0,2 l/m 0 min 2 min 214 W/m 6,4 km/h (2 Bft) 93,62 %
23.03.2023 12:20 10,1 C 10,6 C 6,1 C 96 % 1005,9 hPa 0,0 l/m 0 min 0 min 268 W/m 6,4 km/h (2 Bft) 97,87 %
23.03.2023 12:22 10,2 C 11,1 C 6,7 C 96 % 1005,9 hPa 0,0 l/m 0 min 0 min 264 W/m 9,7 km/h (2 Bft) 100,00 %
23.03.2023 12:24 10,3 C 11,7 C 6,7 C 96 % 1005,9 hPa 0,0 l/m 2 min 0 min 381 W/m 6,4 km/h (2 Bft) 97,87 %
23.03.2023 12:26 10,3 C 11,7 C 6,7 C 96 % 1006,0 hPa 0,0 l/m 0 min 0 min 299 W/m 12,9 km/h (3 Bft) 97,87 %
23.03.2023 12:28 10,4 C 11,7 C 6,7 C 96 % 1006,0 hPa 0,0 l/m 0 min 0 min 247 W/m 9,7 km/h (2 Bft) 100,00 %
23.03.2023 12:30 10,6 C 11,7 C 6,7 C 96 % 1005,9 hPa 0,0 l/m 0 min 0 min 276 W/m 6,4 km/h (2 Bft) 97,83 %
23.03.2023 12:32 10,6 C 11,7 C 7,2 C 96 % 1006,0 hPa 0,0 l/m 0 min 0 min 295 W/m 6,4 km/h (2 Bft) 97,87 %
23.03.2023 12:34 10,7 C 11,7 C 6,7 C 96 % 1006,0 hPa 0,0 l/m 0 min 0 min 207 W/m 16,1 km/h (3 Bft) 100,00 %
23.03.2023 12:36 10,7 C 11,7 C 6,7 C 96 % 1006,0 hPa 0,0 l/m 0 min 0 min 177 W/m 12,9 km/h (3 Bft) 97,87 %
23.03.2023 12:38 10,7 C 11,1 C 6,7 C 96 % 1006,0 hPa 0,0 l/m 0 min 0 min 184 W/m 12,9 km/h (3 Bft) 97,87 %
23.03.2023 12:40 10,7 C 11,1 C 6,7 C 96 % 1006,0 hPa 0,0 l/m 0 min 0 min 140 W/m 16,1 km/h (3 Bft) 100,00 %
23.03.2023 12:42 10,7 C 10,6 C 6,7 C 96 % 1006,1 hPa 0,0 l/m 0 min 0 min 124 W/m 16,1 km/h (3 Bft) 97,87 %
23.03.2023 12:44 10,7 C 10,6 C 6,7 C 96 % 1006,1 hPa 0,0 l/m 0 min 2 min 126 W/m 19,3 km/h (3 Bft) 100,00 %
23.03.2023 12:46 10,7 C 10,6 C 6,7 C 96 % 1006,0 hPa 0,0 l/m 0 min 2 min 172 W/m 16,1 km/h (3 Bft) 100,00 %
23.03.2023 12:50 10,7 C 11,7 C 6,7 C 96 % 1006,0 hPa 0,0 l/m 0 min 4 min 244 W/m 6,4 km/h (2 Bft) 100,00 %
23.03.2023 12:52 10,8 C 11,7 C 6,7 C 96 % 1005,9 hPa 0,0 l/m 0 min 2 min 196 W/m 6,4 km/h (2 Bft) 100,00 %
23.03.2023 12:54 10,8 C 11,1 C 6,7 C 96 % 1006,0 hPa 0,0 l/m 0 min 2 min 195 W/m 6,4 km/h (2 Bft) 97,83 %
23.03.2023 12:56 10,9 C 11,1 C 6,7 C 96 % 1006,0 hPa 0,0 l/m 0 min 0 min 149 W/m 16,1 km/h (3 Bft) 100,00 %
23.03.2023 12:58 10,9 C 10,6 C 6,7 C 96 % 1006,1 hPa 0,0 l/m 0 min 0 min 103 W/m 25,7 km/h (4 Bft) 100,00 %
23.03.2023 13:00 10,9 C 10,6 C 6,7 C 96 % 1006,1 hPa 0,0 l/m 0 min 0 min 85 W/m 16,1 km/h (3 Bft) 93,62 %
23.03.2023 13:02 10,9 C 10,6 C 6,7 C 96 % 1006,1 hPa 0,2 l/m 0 min 2 min 98 W/m 12,9 km/h (3 Bft) 95,74 %
23.03.2023 13:04 10,9 C 10,6 C 6,7 C 96 % 1006,1 hPa 0,0 l/m 0 min 2 min 115 W/m 19,3 km/h (3 Bft) 97,56 %
23.03.2023 13:06 10,9 C 10,6 C 6,7 C 96 % 1006,0 hPa 0,0 l/m 0 min 2 min 120 W/m 16,1 km/h (3 Bft) 96,15 %
23.03.2023 13:08 10,9 C 10,6 C 6,7 C 96 % 1006,0 hPa 0,2 l/m 0 min 2 min 89 W/m 9,7 km/h (2 Bft) 95,74 %
23.03.2023 13:10 10,9 C 10,6 C 6,7 C 96 % 1006,1 hPa 0,0 l/m 0 min 2 min 101 W/m 22,5 km/h (4 Bft) 97,87 %
23.03.2023 13:12 10,9 C 10,6 C 6,7 C 96 % 1006,0 hPa 0,0 l/m 0 min 2 min 248 W/m 12,9 km/h (3 Bft) 95,74 %
23.03.2023 13:14 10,9 C 10,6 C 6,7 C 96 % 1006,0 hPa 0,2 l/m 0 min 2 min 201 W/m 22,5 km/h (4 Bft) 97,87 %
23.03.2023 13:16 10,9 C 10,6 C 6,7 C 96 % 1006,1 hPa 0,0 l/m 0 min 0 min 142 W/m 19,3 km/h (3 Bft) 95,74 %
23.03.2023 13:18 10,9 C 10,6 C 6,7 C 96 % 1006,0 hPa 0,0 l/m 0 min 0 min 148 W/m 12,9 km/h (3 Bft) 95,74 %
23.03.2023 13:20 11,0 C 10,6 C 6,7 C 96 % 1006,0 hPa 0,0 l/m 0 min 0 min 127 W/m 9,7 km/h (2 Bft) 95,74 %
23.03.2023 13:22 11,0 C 10,6 C 6,7 C 96 % 1006,1 hPa 0,0 l/m 0 min 0 min 115 W/m 16,1 km/h (3 Bft) 93,48 %
23.03.2023 13:24 11,1 C 10,6 C 6,7 C 96 % 1006,1 hPa 0,0 l/m 0 min 0 min 137 W/m 12,9 km/h (3 Bft) 93,62 %
23.03.2023 13:26 11,1 C 10,6 C 6,7 C 96 % 1006,1 hPa 0,0 l/m 0 min 0 min 113 W/m 16,1 km/h (3 Bft) 93,62 %
23.03.2023 13:28 11,1 C 10,6 C 6,7 C 96 % 1006,1 hPa 0,0 l/m 0 min 0 min 87 W/m 12,9 km/h (3 Bft) 95,74 %
23.03.2023 13:30 11,1 C 10,6 C 6,7 C 96 % 1006,1 hPa 0,0 l/m 0 min 2 min 79 W/m 19,3 km/h (3 Bft) 95,74 %
23.03.2023 13:32 11,1 C 10,6 C 6,7 C 96 % 1006,1 hPa 0,0 l/m 0 min 2 min 85 W/m 19,3 km/h (3 Bft) 93,62 %
23.03.2023 13:34 11,1 C 10,6 C 6,7 C 96 % 1006,1 hPa 0,0 l/m 0 min 2 min 82 W/m 19,3 km/h (3 Bft) 95,65 %
23.03.2023 13:36 11,1 C 10,6 C 6,7 C 96 % 1006,0 hPa 0,2 l/m 0 min 2 min 100 W/m 12,9 km/h (3 Bft) 95,12 %
23.03.2023 13:38 11,1 C 10,6 C 6,7 C 96 % 1005,9 hPa 0,0 l/m 0 min 2 min 150 W/m 19,3 km/h (3 Bft) 93,62 %
23.03.2023 13:40 11,1 C 10,6 C 6,7 C 96 % 1006,0 hPa 0,0 l/m 0 min 2 min 146 W/m 12,9 km/h (3 Bft) 95,74 %
23.03.2023 13:42 11,1 C 10,6 C 6,7 C 96 % 1005,9 hPa 0,0 l/m 0 min 2 min 117 W/m 22,5 km/h (4 Bft) 97,83 %
23.03.2023 13:44 11,1 C 10,6 C 6,7 C 96 % 1005,9 hPa 0,0 l/m 0 min 2 min 88 W/m 16,1 km/h (3 Bft) 89,36 %
23.03.2023 13:46 11,1 C 10,6 C 6,7 C 96 % 1006,0 hPa 0,2 l/m 0 min 2 min 101 W/m 12,9 km/h (3 Bft) 91,49 %
23.03.2023 13:48 11,1 C 10,6 C 6,7 C 96 % 1005,9 hPa 0,0 l/m 0 min 0 min 150 W/m 12,9 km/h (3 Bft) 93,48 %
23.03.2023 13:50 11,1 C 11,1 C 6,7 C 96 % 1005,9 hPa 0,0 l/m 0 min 0 min 241 W/m 22,5 km/h (4 Bft) 93,18 %
23.03.2023 13:52 11,2 C 11,7 C 7,2 C 96 % 1005,9 hPa 0,0 l/m 0 min 0 min 197 W/m 12,9 km/h (3 Bft) 94,00 %
23.03.2023 13:54 11,2 C 11,7 C 7,2 C 96 % 1005,8 hPa 0,0 l/m 0 min 0 min 196 W/m 16,1 km/h (3 Bft) 93,62 %
23.03.2023 13:56 11,3 C 11,7 C 7,2 C 96 % 1005,8 hPa 0,0 l/m 0 min 0 min 202 W/m 19,3 km/h (3 Bft) 95,74 %
23.03.2023 13:58 11,3 C 11,7 C 7,2 C 96 % 1005,7 hPa 0,0 l/m 0 min 0 min 160 W/m 16,1 km/h (3 Bft) 91,49 %
23.03.2023 14:00 11,4 C 11,7 C 7,2 C 96 % 1005,7 hPa 0,0 l/m 0 min 0 min 96 W/m 9,7 km/h (2 Bft) 93,62 %
23.03.2023 14:02 11,4 C 11,7 C 7,2 C 96 % 1005,7 hPa 0,0 l/m 0 min 0 min 96 W/m 12,9 km/h (3 Bft) 97,83 %
23.03.2023 14:04 11,4 C 11,7 C 7,2 C 96 % 1005,7 hPa 0,0 l/m 0 min 0 min 180 W/m 22,5 km/h (4 Bft) 95,74 %
23.03.2023 14:06 11,6 C 12,8 C 7,2 C 96 % 1005,7 hPa 0,0 l/m 0 min 0 min 251 W/m 22,5 km/h (4 Bft) 95,74 %
23.03.2023 14:08 11,6 C 12,8 C 7,8 C 96 % 1005,7 hPa 0,0 l/m 2 min 0 min 308 W/m 19,3 km/h (3 Bft) 97,87 %
23.03.2023 14:10 11,7 C 13,9 C 7,8 C 96 % 1005,6 hPa 0,0 l/m 2 min 0 min 398 W/m 19,3 km/h (3 Bft) 97,87 %
23.03.2023 14:12 11,8 C 13,3 C 7,8 C 96 % 1005,6 hPa 0,0 l/m 2 min 0 min 384 W/m 12,9 km/h (3 Bft) 97,87 %
23.03.2023 14:14 11,9 C 13,3 C 7,8 C 96 % 1005,7 hPa 0,0 l/m 0 min 0 min 256 W/m 12,9 km/h (3 Bft) 97,87 %
23.03.2023 14:16 11,9 C 12,8 C 7,8 C 96 % 1005,6 hPa 0,0 l/m 0 min 0 min 259 W/m 22,5 km/h (4 Bft) 97,83 %
23.03.2023 14:18 12,0 C 12,8 C 7,8 C 96 % 1005,6 hPa 0,0 l/m 0 min 0 min 232 W/m 12,9 km/h (3 Bft) 97,87 %
23.03.2023 14:20 12,1 C 12,8 C 7,8 C 96 % 1005,6 hPa 0,0 l/m 0 min 0 min 195 W/m 16,1 km/h (3 Bft) 100,00 %
23.03.2023 14:22 12,1 C 12,8 C 7,8 C 96 % 1005,5 hPa 0,0 l/m 0 min 0 min 162 W/m 12,9 km/h (3 Bft) 100,00 %
23.03.2023 14:24 12,1 C 12,8 C 7,8 C 96 % 1005,6 hPa 0,0 l/m 0 min 0 min 206 W/m 19,3 km/h (3 Bft) 100,00 %
23.03.2023 14:26 12,2 C 12,8 C 7,8 C 96 % 1005,7 hPa 0,0 l/m 0 min 0 min 220 W/m 6,4 km/h (2 Bft) 100,00 %
23.03.2023 14:28 12,3 C 13,3 C 8,3 C 96 % 1005,7 hPa 0,0 l/m 0 min 0 min 187 W/m 6,4 km/h (2 Bft) 97,87 %
23.03.2023 14:30 12,3 C 12,8 C 7,8 C 96 % 1005,7 hPa 0,0 l/m 0 min 0 min 181 W/m 19,3 km/h (3 Bft) 100,00 %
23.03.2023 14:32 12,3 C 12,8 C 7,8 C 95 % 1005,7 hPa 0,0 l/m 0 min 0 min 169 W/m 16,1 km/h (3 Bft) 100,00 %
23.03.2023 14:34 12,3 C 12,8 C 7,8 C 95 % 1005,7 hPa 0,0 l/m 0 min 0 min 158 W/m 12,9 km/h (3 Bft) 100,00 %
23.03.2023 14:36 12,4 C 12,8 C 7,8 C 95 % 1005,6 hPa 0,0 l/m 0 min 0 min 140 W/m 19,3 km/h (3 Bft) 100,00 %
23.03.2023 14:38 12,4 C 12,2 C 7,8 C 95 % 1005,7 hPa 0,0 l/m 0 min 0 min 133 W/m 19,3 km/h (3 Bft) 97,87 %
23.03.2023 14:40 12,4 C 12,2 C 7,8 C 95 % 1005,7 hPa 0,0 l/m 0 min 0 min 127 W/m 9,7 km/h (2 Bft) 97,87 %
23.03.2023 14:42 12,4 C 12,2 C 7,8 C 95 % 1005,7 hPa 0,0 l/m 0 min 0 min 123 W/m 19,3 km/h (3 Bft) 100,00 %
23.03.2023 14:44 12,4 C 12,2 C 7,8 C 95 % 1005,6 hPa 0,0 l/m 0 min 0 min 116 W/m 16,1 km/h (3 Bft) 97,83 %
23.03.2023 14:46 12,4 C 12,2 C 7,8 C 95 % 1005,7 hPa 0,0 l/m 0 min 0 min 98 W/m 16,1 km/h (3 Bft) 100,00 %
23.03.2023 14:48 12,5 C 12,2 C 7,8 C 94 % 1005,8 hPa 0,0 l/m 0 min 0 min 89 W/m 6,4 km/h (2 Bft) 100,00 %
23.03.2023 14:50 12,5 C 12,2 C 7,8 C 94 % 1005,8 hPa 0,0 l/m 0 min 0 min 86 W/m 22,5 km/h (4 Bft) 100,00 %
23.03.2023 14:52 12,6 C 12,2 C 7,8 C 94 % 1006,0 hPa 0,0 l/m 0 min 0 min 83 W/m 16,1 km/h (3 Bft) 100,00 %
23.03.2023 14:54 12,6 C 12,2 C 7,8 C 94 % 1005,9 hPa 0,0 l/m 0 min 2 min 113 W/m 16,1 km/h (3 Bft) 100,00 %
23.03.2023 14:56 12,6 C 12,2 C 7,8 C 94 % 1005,9 hPa 0,0 l/m 0 min 0 min 141 W/m 12,9 km/h (3 Bft) 95,65 %
23.03.2023 14:58 12,6 C 12,2 C 7,8 C 94 % 1006,0 hPa 0,0 l/m 0 min 0 min 155 W/m 16,1 km/h (3 Bft) 100,00 %
23.03.2023 15:00 12,6 C 12,8 C 7,8 C 94 % 1005,9 hPa 0,0 l/m 0 min 0 min 183 W/m 12,9 km/h (3 Bft) 100,00 %
23.03.2023 15:02 12,7 C 12,8 C 7,8 C 94 % 1005,8 hPa 0,0 l/m 0 min 0 min 224 W/m 22,5 km/h (4 Bft) 100,00 %
23.03.2023 15:04 12,7 C 13,9 C 8,3 C 94 % 1005,8 hPa 0,0 l/m 2 min 0 min 342 W/m 16,1 km/h (3 Bft) 100,00 %
23.03.2023 15:06 12,8 C 15,0 C 8,3 C 94 % 1005,7 hPa 0,0 l/m 2 min 0 min 537 W/m 19,3 km/h (3 Bft) 100,00 %
23.03.2023 15:08 12,9 C 16,1 C 8,3 C 95 % 1005,7 hPa 0,0 l/m 2 min 0 min 550 W/m 12,9 km/h (3 Bft) 100,00 %
23.03.2023 15:10 13,1 C 16,1 C 8,3 C 95 % 1005,7 hPa 0,0 l/m 2 min 0 min 555 W/m 29,0 km/h (5 Bft) 100,00 %
23.03.2023 15:12 13,2 C 16,1 C 8,3 C 94 % 1005,7 hPa 0,0 l/m 2 min 0 min 572 W/m 16,1 km/h (3 Bft) 97,87 %
23.03.2023 15:14 13,4 C 16,1 C 8,3 C 94 % 1005,7 hPa 0,0 l/m 2 min 0 min 559 W/m 25,7 km/h (4 Bft) 100,00 %
23.03.2023 15:16 13,5 C 15,6 C 8,3 C 94 % 1005,6 hPa 0,0 l/m 2 min 0 min 586 W/m 29,0 km/h (5 Bft) 100,00 %
23.03.2023 15:18 13,6 C 15,6 C 8,3 C 93 % 1005,6 hPa 0,0 l/m 2 min 0 min 571 W/m 29,0 km/h (5 Bft) 100,00 %
23.03.2023 15:20 13,7 C 15,0 C 8,3 C 92 % 1005,6 hPa 0,0 l/m 2 min 0 min 458 W/m 16,1 km/h (3 Bft) 100,00 %
23.03.2023 15:22 13,8 C 14,4 C 8,3 C 92 % 1005,4 hPa 0,0 l/m 0 min 0 min 132 W/m 19,3 km/h (3 Bft) 100,00 %
23.03.2023 15:24 13,8 C 14,4 C 8,3 C 91 % 1005,4 hPa 0,0 l/m 0 min 0 min 150 W/m 35,4 km/h (5 Bft) 97,87 %
23.03.2023 15:26 13,8 C 14,4 C 8,3 C 91 % 1005,6 hPa 0,0 l/m 0 min 0 min 209 W/m 22,5 km/h (4 Bft) 97,87 %
23.03.2023 15:28 13,8 C 14,4 C 8,3 C 90 % 1005,6 hPa 0,0 l/m 2 min 0 min 287 W/m 19,3 km/h (3 Bft) 100,00 %
23.03.2023 15:30 13,8 C 14,4 C 8,3 C 90 % 1005,7 hPa 0,0 l/m 0 min 0 min 211 W/m 25,7 km/h (4 Bft) 97,87 %
23.03.2023 15:32 13,8 C 13,9 C 8,3 C 89 % 1005,7 hPa 0,0 l/m 0 min 0 min 167 W/m 22,5 km/h (4 Bft) 97,87 %
23.03.2023 15:34 13,8 C 13,9 C 8,3 C 89 % 1005,7 hPa 0,0 l/m 0 min 0 min 169 W/m 25,7 km/h (4 Bft) 100,00 %
23.03.2023 15:36 13,8 C 13,9 C 8,3 C 88 % 1005,6 hPa 0,0 l/m 0 min 0 min 182 W/m 29,0 km/h (5 Bft) 100,00 %
23.03.2023 15:38 13,8 C 13,9 C 8,3 C 88 % 1005,6 hPa 0,0 l/m 0 min 0 min 175 W/m 25,7 km/h (4 Bft) 95,74 %
23.03.2023 15:40 13,8 C 13,9 C 8,3 C 88 % 1005,5 hPa 0,0 l/m 0 min 0 min 202 W/m 45,1 km/h (6 Bft) 97,87 %
23.03.2023 15:42 13,8 C 13,9 C 7,8 C 87 % 1005,6 hPa 0,0 l/m 0 min 0 min 191 W/m 48,3 km/h (6 Bft) 100,00 %
23.03.2023 15:44 13,8 C 13,9 C 7,8 C 87 % 1005,5 hPa 0,0 l/m 0 min 0 min 166 W/m 29,0 km/h (5 Bft) 93,62 %
23.03.2023 15:46 13,8 C 13,9 C 7,8 C 87 % 1005,5 hPa 0,0 l/m 0 min 0 min 180 W/m 29,0 km/h (5 Bft) 97,87 %
23.03.2023 15:48 13,8 C 13,9 C 7,8 C 87 % 1005,5 hPa 0,0 l/m 0 min 0 min 205 W/m 35,4 km/h (5 Bft) 97,87 %
23.03.2023 15:50 13,8 C 13,9 C 7,8 C 87 % 1005,5 hPa 0,0 l/m 0 min 0 min 207 W/m 38,6 km/h (5 Bft) 97,83 %
23.03.2023 15:52 13,8 C 13,9 C 7,8 C 87 % 1005,5 hPa 0,0 l/m 0 min 0 min 181 W/m 32,2 km/h (5 Bft) 97,87 %
23.03.2023 15:54 13,7 C 13,9 C 7,8 C 86 % 1005,5 hPa 0,0 l/m 2 min 0 min 247 W/m 38,6 km/h (5 Bft) 97,87 %
23.03.2023 15:56 13,8 C 15,0 C 7,8 C 87 % 1005,4 hPa 0,0 l/m 2 min 0 min 365 W/m 25,7 km/h (4 Bft) 93,62 %
23.03.2023 15:58 13,8 C 16,1 C 7,8 C 87 % 1005,4 hPa 0,0 l/m 2 min 0 min 432 W/m 25,7 km/h (4 Bft) 93,62 %
23.03.2023 16:00 13,9 C 15,6 C 7,8 C 87 % 1005,2 hPa 0,0 l/m 2 min 0 min 410 W/m 22,5 km/h (4 Bft) 95,74 %
23.03.2023 16:02 14,0 C 15,6 C 7,8 C 86 % 1005,1 hPa 0,0 l/m 0 min 0 min 144 W/m 19,3 km/h (3 Bft) 93,48 %
23.03.2023 16:04 14,0 C 16,1 C 7,8 C 86 % 1005,0 hPa 0,0 l/m 2 min 0 min 425 W/m 35,4 km/h (5 Bft) 95,74 %
23.03.2023 16:06 14,1 C 16,1 C 7,8 C 85 % 1004,9 hPa 0,0 l/m 2 min 0 min 404 W/m 41,8 km/h (6 Bft) 93,62 %
23.03.2023 16:08 14,2 C 16,1 C 7,8 C 85 % 1004,9 hPa 0,0 l/m 2 min 0 min 382 W/m 41,8 km/h (6 Bft) 93,62 %
23.03.2023 16:10 14,2 C 16,1 C 7,8 C 84 % 1004,8 hPa 0,0 l/m 2 min 0 min 372 W/m 25,7 km/h (4 Bft) 95,74 %
23.03.2023 16:12 14,3 C 16,7 C 7,8 C 84 % 1004,8 hPa 0,0 l/m 2 min 0 min 380 W/m 45,1 km/h (6 Bft) 93,62 %
23.03.2023 16:14 14,3 C 16,7 C 7,8 C 84 % 1004,8 hPa 0,0 l/m 2 min 0 min 372 W/m 38,6 km/h (5 Bft) 91,49 %
23.03.2023 16:16 14,3 C 16,7 C 7,8 C 84 % 1004,8 hPa 0,0 l/m 2 min 0 min 377 W/m 25,7 km/h (4 Bft) 93,48 %
23.03.2023 16:18 14,3 C 16,1 C 8,3 C 84 % 1004,6 hPa 0,0 l/m 2 min 0 min 370 W/m 32,2 km/h (5 Bft) 91,49 %
23.03.2023 16:20 14,4 C 16,7 C 8,3 C 83 % 1004,7 hPa 0,0 l/m 2 min 0 min 336 W/m 19,3 km/h (3 Bft) 93,62 %
23.03.2023 16:22 14,5 C 16,7 C 8,3 C 83 % 1004,7 hPa 0,0 l/m 2 min 0 min 314 W/m 19,3 km/h (3 Bft) 93,62 %
23.03.2023 16:24 14,6 C 16,7 C 8,3 C 83 % 1004,7 hPa 0,0 l/m 2 min 0 min 322 W/m 29,0 km/h (5 Bft) 95,74 %
23.03.2023 16:26 14,6 C 16,1 C 8,9 C 83 % 1004,7 hPa 0,0 l/m 2 min 0 min 300 W/m 29,0 km/h (5 Bft) 95,74 %
23.03.2023 16:28 14,6 C 16,1 C 8,9 C 83 % 1004,7 hPa 0,0 l/m 2 min 0 min 266 W/m 25,7 km/h (4 Bft) 93,62 %
23.03.2023 16:30 14,6 C 16,1 C 8,9 C 83 % 1004,7 hPa 0,0 l/m 2 min 0 min 280 W/m 32,2 km/h (5 Bft) 93,48 %
23.03.2023 16:32 14,6 C 16,1 C 8,9 C 83 % 1004,8 hPa 0,0 l/m 2 min 0 min 307 W/m 25,7 km/h (4 Bft) 95,74 %
23.03.2023 16:34 14,6 C 16,1 C 9,4 C 83 % 1004,8 hPa 0,0 l/m 2 min 0 min 297 W/m 32,2 km/h (5 Bft) 93,62 %
23.03.2023 16:36 14,6 C 16,1 C 9,4 C 83 % 1004,8 hPa 0,0 l/m 2 min 0 min 298 W/m 29,0 km/h (5 Bft) 93,62 %
23.03.2023 16:38 14,6 C 16,1 C 9,4 C 83 % 1004,8 hPa 0,0 l/m 2 min 0 min 239 W/m 29,0 km/h (5 Bft) 93,62 %
23.03.2023 16:40 14,6 C 16,1 C 9,4 C 82 % 1004,8 hPa 0,0 l/m 2 min 0 min 245 W/m 29,0 km/h (5 Bft) 97,87 %
23.03.2023 16:42 14,6 C 16,7 C 9,4 C 82 % 1004,8 hPa 0,0 l/m 2 min 0 min 256 W/m 19,3 km/h (3 Bft) 97,83 %
23.03.2023 16:44 14,7 C 16,7 C 9,4 C 82 % 1004,8 hPa 0,0 l/m 2 min 0 min 278 W/m 22,5 km/h (4 Bft) 97,87 %
23.03.2023 16:46 14,7 C 16,1 C 10,0 C 82 % 1004,8 hPa 0,0 l/m 2 min 0 min 243 W/m 35,4 km/h (5 Bft) 97,87 %
23.03.2023 16:48 14,7 C 15,6 C 10,0 C 81 % 1004,7 hPa 0,0 l/m 2 min 0 min 212 W/m 35,4 km/h (5 Bft) 95,74 %
23.03.2023 16:50 14,7 C 16,1 C 10,0 C 81 % 1004,7 hPa 0,0 l/m 2 min 0 min 238 W/m 22,5 km/h (4 Bft) 95,74 %
23.03.2023 16:52 14,6 C 16,1 C 10,0 C 81 % 1004,7 hPa 0,0 l/m 2 min 0 min 221 W/m 19,3 km/h (3 Bft) 97,87 %
23.03.2023 16:54 14,7 C 15,6 C 10,0 C 81 % 1004,6 hPa 0,0 l/m 2 min 0 min 199 W/m 35,4 km/h (5 Bft) 97,87 %
23.03.2023 16:56 14,6 C 15,6 C 10,0 C 82 % 1004,5 hPa 0,0 l/m 2 min 0 min 200 W/m 16,1 km/h (3 Bft) 97,83 %
23.03.2023 16:58 14,7 C 15,6 C 10,0 C 82 % 1004,5 hPa 0,0 l/m 2 min 0 min 196 W/m 22,5 km/h (4 Bft) 97,87 %
23.03.2023 17:00 14,7 C 16,1 C 10,0 C 82 % 1004,5 hPa 0,0 l/m 2 min 0 min 189 W/m 12,9 km/h (3 Bft) 95,74 %
23.03.2023 17:02 14,7 C 15,6 C 10,0 C 82 % 1004,5 hPa 0,0 l/m 2 min 0 min 164 W/m 25,7 km/h (4 Bft) 97,87 %
23.03.2023 17:04 14,7 C 15,6 C 10,0 C 81 % 1004,5 hPa 0,0 l/m 2 min 0 min 176 W/m 25,7 km/h (4 Bft) 95,74 %
23.03.2023 17:06 14,7 C 15,0 C 10,0 C 81 % 1004,6 hPa 0,0 l/m 2 min 0 min 179 W/m 22,5 km/h (4 Bft) 100,00 %
23.03.2023 17:08 14,7 C 15,0 C 10,0 C 81 % 1004,6 hPa 0,0 l/m 2 min 0 min 164 W/m 22,5 km/h (4 Bft) 100,00 %
23.03.2023 17:10 14,7 C 15,0 C 10,0 C 81 % 1004,5 hPa 0,0 l/m 2 min 0 min 129 W/m 22,5 km/h (4 Bft) 100,00 %
23.03.2023 17:12 14,7 C 14,4 C 10,0 C 81 % 1004,6 hPa 0,0 l/m 0 min 0 min 93 W/m 16,1 km/h (3 Bft) 100,00 %
23.03.2023 17:14 14,7 C 14,4 C 10,0 C 81 % 1004,7 hPa 0,0 l/m 0 min 0 min 80 W/m 19,3 km/h (3 Bft) 97,87 %
23.03.2023 17:16 14,7 C 13,9 C 10,0 C 82 % 1004,7 hPa 0,0 l/m 0 min 0 min 71 W/m 16,1 km/h (3 Bft) 97,87 %
23.03.2023 17:18 14,6 C 13,9 C 10,0 C 82 % 1004,6 hPa 0,0 l/m 0 min 0 min 67 W/m 16,1 km/h (3 Bft) 93,62 %
23.03.2023 17:20 14,6 C 13,9 C 9,4 C 82 % 1004,6 hPa 0,0 l/m 0 min 0 min 73 W/m 16,1 km/h (3 Bft) 100,00 %
23.03.2023 17:22 14,6 C 13,9 C 9,4 C 82 % 1004,6 hPa 0,0 l/m 0 min 0 min 85 W/m 6,4 km/h (2 Bft) 97,83 %
23.03.2023 17:24 14,6 C 13,9 C 10,0 C 82 % 1004,6 hPa 0,0 l/m 0 min 0 min 78 W/m 12,9 km/h (3 Bft) 100,00 %
23.03.2023 17:26 14,6 C 13,9 C 10,0 C 82 % 1004,6 hPa 0,0 l/m 0 min 0 min 82 W/m 6,4 km/h (2 Bft) 95,74 %
23.03.2023 17:28 14,6 C 14,4 C 10,0 C 82 % 1004,5 hPa 0,0 l/m 2 min 0 min 129 W/m 19,3 km/h (3 Bft) 100,00 %
23.03.2023 17:30 14,6 C 14,4 C 10,0 C 83 % 1004,4 hPa 0,0 l/m 2 min 0 min 136 W/m 9,7 km/h (2 Bft) 100,00 %
23.03.2023 17:32 14,6 C 14,4 C 10,0 C 83 % 1004,4 hPa 0,0 l/m 2 min 0 min 141 W/m 6,4 km/h (2 Bft) 100,00 %
23.03.2023 17:34 14,6 C 14,4 C 10,0 C 83 % 1004,5 hPa 0,0 l/m 2 min 0 min 124 W/m 9,7 km/h (2 Bft) 100,00 %
23.03.2023 17:36 14,6 C 14,4 C 10,0 C 83 % 1004,5 hPa 0,0 l/m 2 min 0 min 97 W/m 12,9 km/h (3 Bft) 100,00 %
23.03.2023 17:38 14,7 C 14,4 C 10,0 C 83 % 1004,5 hPa 0,0 l/m 0 min 0 min 73 W/m 12,9 km/h (3 Bft) 100,00 %
23.03.2023 17:40 14,7 C 14,4 C 10,0 C 82 % 1004,5 hPa 0,0 l/m 0 min 0 min 55 W/m 16,1 km/h (3 Bft) 100,00 %
23.03.2023 17:42 14,7 C 14,4 C 10,0 C 82 % 1004,6 hPa 0,0 l/m 0 min 0 min 43 W/m 16,1 km/h (3 Bft) 100,00 %
23.03.2023 17:44 14,6 C 13,9 C 10,0 C 82 % 1004,6 hPa 0,0 l/m 0 min 0 min 35 W/m 9,7 km/h (2 Bft) 100,00 %
23.03.2023 17:46 14,6 C 13,9 C 10,0 C 82 % 1004,6 hPa 0,0 l/m 0 min 0 min 28 W/m 12,9 km/h (3 Bft) 100,00 %
23.03.2023 17:48 14,6 C 13,9 C 10,0 C 81 % 1004,6 hPa 0,0 l/m 0 min 0 min 20 W/m 19,3 km/h (3 Bft) 100,00 %
23.03.2023 17:50 14,6 C 13,9 C 10,0 C 81 % 1004,6 hPa 0,0 l/m 0 min 0 min 17 W/m 16,1 km/h (3 Bft) 100,00 %
23.03.2023 17:52 14,6 C 13,9 C 10,0 C 81 % 1004,5 hPa 0,0 l/m 0 min 0 min 12 W/m 16,1 km/h (3 Bft) 97,87 %
23.03.2023 17:54 14,6 C 13,9 C 10,0 C 80 % 1004,5 hPa 0,0 l/m 0 min 0 min 10 W/m 9,7 km/h (2 Bft) 95,74 %
23.03.2023 17:56 14,6 C 13,9 C 10,0 C 80 % 1004,6 hPa 0,0 l/m 0 min 0 min 7 W/m 16,1 km/h (3 Bft) 100,00 %
23.03.2023 17:58 14,6 C 13,9 C 10,0 C 80 % 1004,6 hPa 0,0 l/m 0 min 0 min 8 W/m 9,7 km/h (2 Bft) 100,00 %
23.03.2023 18:00 14,6 C 13,9 C 10,0 C 80 % 1004,7 hPa 0,0 l/m 0 min 0 min 10 W/m 19,3 km/h (3 Bft) 100,00 %
23.03.2023 18:02 14,5 C 13,9 C 10,0 C 80 % 1004,7 hPa 0,0 l/m 0 min 0 min 8 W/m 6,4 km/h (2 Bft) 97,87 %
23.03.2023 18:04 14,5 C 13,9 C 10,0 C 80 % 1004,7 hPa 0,0 l/m 0 min 0 min 8 W/m 16,1 km/h (3 Bft) 100,00 %
23.03.2023 18:08 14,4 C 13,9 C 10,0 C 79 % 1004,8 hPa 0,0 l/m 0 min 0 min 11 W/m 22,5 km/h (4 Bft) 96,97 %
23.03.2023 18:10 14,4 C 13,9 C 10,0 C 79 % 1004,8 hPa 0,0 l/m 0 min 0 min 9 W/m 16,1 km/h (3 Bft) 97,87 %
23.03.2023 18:12 14,4 C 13,9 C 10,0 C 79 % 1004,8 hPa 0,0 l/m 0 min 0 min 9 W/m 12,9 km/h (3 Bft) 97,87 %
23.03.2023 18:14 14,4 C 13,9 C 10,0 C 79 % 1004,8 hPa 0,0 l/m 0 min 0 min 11 W/m 25,7 km/h (4 Bft) 97,87 %
23.03.2023 18:16 14,4 C 13,9 C 10,0 C 79 % 1004,8 hPa 0,0 l/m 0 min 0 min 12 W/m 19,3 km/h (3 Bft) 93,62 %
23.03.2023 18:18 14,4 C 13,9 C 10,0 C 78 % 1004,8 hPa 0,0 l/m 0 min 0 min 18 W/m 22,5 km/h (4 Bft) 97,83 %
23.03.2023 18:20 14,4 C 13,9 C 10,0 C 78 % 1004,8 hPa 0,0 l/m 0 min 0 min 28 W/m 25,7 km/h (4 Bft) 97,87 %
23.03.2023 18:22 14,4 C 13,9 C 10,0 C 78 % 1004,8 hPa 0,0 l/m 2 min 0 min 37 W/m 29,0 km/h (5 Bft) 100,00 %
23.03.2023 18:24 14,4 C 13,9 C 10,0 C 78 % 1004,8 hPa 0,0 l/m 2 min 0 min 34 W/m 25,7 km/h (4 Bft) 97,87 %
23.03.2023 18:26 14,4 C 13,9 C 10,0 C 77 % 1004,8 hPa 0,0 l/m 0 min 0 min 26 W/m 19,3 km/h (3 Bft) 95,74 %
23.03.2023 18:28 14,4 C 13,9 C 10,0 C 77 % 1004,8 hPa 0,0 l/m 0 min 0 min 20 W/m 19,3 km/h (3 Bft) 97,87 %
23.03.2023 18:30 14,4 C 13,9 C 10,0 C 77 % 1004,8 hPa 0,0 l/m 0 min 0 min 16 W/m 19,3 km/h (3 Bft) 97,87 %
23.03.2023 18:32 14,4 C 13,3 C 9,4 C 77 % 1004,8 hPa 0,0 l/m 0 min 0 min 14 W/m 25,7 km/h (4 Bft) 95,74 %
23.03.2023 18:34 14,3 C 13,3 C 9,4 C 77 % 1004,9 hPa 0,0 l/m 0 min 0 min 13 W/m 19,3 km/h (3 Bft) 97,83 %
23.03.2023 18:36 14,3 C 13,3 C 9,4 C 77 % 1004,9 hPa 0,0 l/m 0 min 0 min 11 W/m 32,2 km/h (5 Bft) 95,74 %
23.03.2023 18:38 14,3 C 13,3 C 9,4 C 77 % 1004,8 hPa 0,0 l/m 0 min 0 min 9 W/m 16,1 km/h (3 Bft) 95,74 %
23.03.2023 18:40 14,3 C 13,3 C 9,4 C 77 % 1004,8 hPa 0,0 l/m 0 min 0 min 9 W/m 19,3 km/h (3 Bft) 97,87 %
23.03.2023 18:42 14,3 C 13,3 C 9,4 C 77 % 1004,8 hPa 0,0 l/m 0 min 0 min 8 W/m 16,1 km/h (3 Bft) 95,74 %
23.03.2023 18:44 14,3 C 13,3 C 9,4 C 77 % 1004,8 hPa 0,0 l/m 0 min 0 min 7 W/m 16,1 km/h (3 Bft) 97,87 %
23.03.2023 18:46 14,3 C 13,3 C 9,4 C 77 % 1004,8 hPa 0,0 l/m 0 min 0 min 5 W/m 16,1 km/h (3 Bft) 91,30 %
23.03.2023 18:48 14,3 C 13,3 C 9,4 C 77 % 1004,7 hPa 0,0 l/m 0 min 0 min 4 W/m 12,9 km/h (3 Bft) 95,74 %
23.03.2023 18:50 14,3 C 13,3 C 9,4 C 77 % 1004,8 hPa 0,0 l/m 0 min 0 min 0 W/m 12,9 km/h (3 Bft) 97,87 %
23.03.2023 18:52 14,3 C 13,3 C 9,4 C 77 % 1004,8 hPa 0,0 l/m 0 min 0 min 0 W/m 22,5 km/h (4 Bft) 97,87 %
23.03.2023 18:54 14,2 C 13,3 C 9,4 C 77 % 1004,8 hPa 0,0 l/m 0 min 0 min 0 W/m 16,1 km/h (3 Bft) 97,87 %
23.03.2023 18:56 14,2 C 12,8 C 9,4 C 77 % 1004,7 hPa 0,0 l/m 0 min 0 min 0 W/m 6,4 km/h (2 Bft) 95,74 %
23.03.2023 18:58 14,2 C 12,8 C 9,4 C 77 % 1004,8 hPa 0,0 l/m 0 min 0 min 0 W/m 9,7 km/h (2 Bft) 95,74 %
23.03.2023 19:00 14,1 C 12,8 C 8,9 C 77 % 1004,8 hPa 0,0 l/m 0 min 0 min 0 W/m 6,4 km/h (2 Bft) 95,65 %
23.03.2023 19:02 14,1 C 12,8 C 8,9 C 77 % 1004,8 hPa 0,0 l/m 0 min 0 min 0 W/m 6,4 km/h (2 Bft) 95,74 %
23.03.2023 19:04 14,1 C 12,8 C 8,9 C 77 % 1004,8 hPa 0,0 l/m 0 min 0 min 0 W/m 6,4 km/h (2 Bft) 97,96 %
23.03.2023 19:06 14,0 C 12,8 C 8,9 C 78 % 1004,7 hPa 0,0 l/m 0 min 0 min 0 W/m 12,9 km/h (3 Bft) 98,31 %
23.03.2023 19:08 13,9 C 12,8 C 8,9 C 78 % 1004,8 hPa 0,0 l/m 0 min 0 min 0 W/m 9,7 km/h (2 Bft) 97,14 %
23.03.2023 19:10 13,9 C 12,8 C 8,9 C 78 % 1004,7 hPa 0,0 l/m 0 min 0 min 0 W/m 12,9 km/h (3 Bft) 95,74 %
23.03.2023 19:12 13,9 C 12,8 C 8,9 C 78 % 1004,6 hPa 0,0 l/m 0 min 0 min 0 W/m 9,7 km/h (2 Bft) 95,74 %
23.03.2023 19:14 13,8 C 12,8 C 8,9 C 78 % 1004,7 hPa 0,0 l/m 0 min 0 min 0 W/m 16,1 km/h (3 Bft) 95,65 %
23.03.2023 19:16 13,8 C 12,8 C 8,9 C 78 % 1004,7 hPa 0,0 l/m 0 min 0 min 0 W/m 12,9 km/h (3 Bft) 93,62 %
23.03.2023 19:18 13,8 C 12,8 C 8,9 C 78 % 1004,6 hPa 0,0 l/m 0 min 0 min 0 W/m 12,9 km/h (3 Bft) 95,74 %
23.03.2023 19:20 13,7 C 12,8 C 8,9 C 79 % 1004,6 hPa 0,0 l/m 0 min 0 min 0 W/m 12,9 km/h (3 Bft) 95,74 %
23.03.2023 19:22 13,7 C 12,8 C 8,9 C 79 % 1004,6 hPa 0,0 l/m 0 min 0 min 0 W/m 9,7 km/h (2 Bft) 93,62 %
23.03.2023 19:24 13,7 C 12,8 C 8,9 C 79 % 1004,5 hPa 0,0 l/m 0 min 0 min 0 W/m 12,9 km/h (3 Bft) 97,87 %
23.03.2023 19:26 13,6 C 12,8 C 8,9 C 79 % 1004,5 hPa 0,0 l/m 0 min 0 min 0 W/m 16,1 km/h (3 Bft) 97,87 %
23.03.2023 19:28 13,6 C 12,8 C 8,9 C 79 % 1004,5 hPa 0,0 l/m 0 min 0 min 0 W/m 22,5 km/h (4 Bft) 95,65 %
23.03.2023 19:30 13,6 C 12,8 C 8,9 C 79 % 1004,6 hPa 0,0 l/m 0 min 0 min 0 W/m 12,9 km/h (3 Bft) 95,74 %
23.03.2023 19:32 13,6 C 12,8 C 8,9 C 79 % 1004,5 hPa 0,0 l/m 0 min 0 min 0 W/m 16,1 km/h (3 Bft) 97,87 %
23.03.2023 19:34 13,6 C 12,8 C 8,9 C 79 % 1004,5 hPa 0,0 l/m 0 min 0 min 0 W/m 16,1 km/h (3 Bft) 97,87 %
23.03.2023 19:36 13,5 C 12,8 C 8,9 C 79 % 1004,5 hPa 0,0 l/m 0 min 0 min 0 W/m 12,9 km/h (3 Bft) 97,87 %
23.03.2023 19:38 13,5 C 12,8 C 8,9 C 79 % 1004,5 hPa 0,0 l/m 0 min 0 min 0 W/m 16,1 km/h (3 Bft) 95,74 %
23.03.2023 19:40 13,5 C 12,8 C 8,9 C 79 % 1004,5 hPa 0,0 l/m 0 min 0 min 0 W/m 16,1 km/h (3 Bft) 97,83 %
23.03.2023 19:42 13,5 C 12,8 C 8,9 C 79 % 1004,4 hPa 0,0 l/m 0 min 0 min 0 W/m 19,3 km/h (3 Bft) 98,18 %
23.03.2023 19:44 13,4 C 12,8 C 8,9 C 79 % 1004,3 hPa 0,0 l/m 0 min 0 min 0 W/m 19,3 km/h (3 Bft) 97,87 %
23.03.2023 19:46 13,4 C 12,8 C 8,9 C 79 % 1004,2 hPa 0,0 l/m 0 min 0 min 0 W/m 16,1 km/h (3 Bft) 95,74 %
23.03.2023 19:48 13,4 C 12,2 C 8,9 C 79 % 1004,2 hPa 0,0 l/m 0 min 0 min 0 W/m 12,9 km/h (3 Bft) 97,87 %
23.03.2023 19:50 13,4 C 12,2 C 8,9 C 79 % 1004,1 hPa 0,0 l/m 0 min 0 min 0 W/m 25,7 km/h (4 Bft) 95,65 %
23.03.2023 19:52 13,4 C 12,2 C 8,9 C 79 % 1004,2 hPa 0,0 l/m 0 min 0 min 0 W/m 22,5 km/h (4 Bft) 97,87 %
23.03.2023 19:54 13,4 C 12,2 C 8,9 C 79 % 1004,2 hPa 0,0 l/m 0 min 0 min 0 W/m 16,1 km/h (3 Bft) 97,87 %
23.03.2023 19:56 13,3 C 12,2 C 8,9 C 79 % 1004,2 hPa 0,0 l/m 0 min 0 min 0 W/m 16,1 km/h (3 Bft) 100,00 %
23.03.2023 19:58 13,3 C 12,2 C 8,9 C 79 % 1004,2 hPa 0,0 l/m 0 min 0 min 0 W/m 19,3 km/h (3 Bft) 100,00 %
23.03.2023 20:00 13,3 C 12,2 C 8,3 C 79 % 1004,3 hPa 0,0 l/m 0 min 0 min 0 W/m 16,1 km/h (3 Bft) 97,87 %
23.03.2023 20:02 13,3 C 12,2 C 8,3 C 79 % 1004,3 hPa 0,0 l/m 0 min 0 min 0 W/m 16,1 km/h (3 Bft) 97,87 %
23.03.2023 20:04 13,3 C 12,2 C 8,3 C 79 % 1004,3 hPa 0,0 l/m 0 min 0 min 0 W/m 12,9 km/h (3 Bft) 97,83 %
23.03.2023 20:06 13,2 C 12,2 C 8,3 C 79 % 1004,2 hPa 0,0 l/m 0 min 0 min 0 W/m 12,9 km/h (3 Bft) 89,74 %
23.03.2023 20:08 13,2 C 12,2 C 8,3 C 80 % 1004,2 hPa 0,0 l/m 0 min 0 min 0 W/m 12,9 km/h (3 Bft) 97,83 %
23.03.2023 20:10 13,2 C 12,2 C 8,3 C 80 % 1004,2 hPa 0,0 l/m 0 min 0 min 0 W/m 19,3 km/h (3 Bft) 97,87 %
23.03.2023 20:12 13,2 C 12,2 C 8,3 C 80 % 1004,2 hPa 0,0 l/m 0 min 0 min 0 W/m 16,1 km/h (3 Bft) 96,23 %
23.03.2023 20:14 13,2 C 12,2 C 8,3 C 80 % 1004,2 hPa 0,0 l/m 0 min 0 min 0 W/m 19,3 km/h (3 Bft) 97,87 %
23.03.2023 20:16 13,1 C 12,2 C 8,3 C 80 % 1004,2 hPa 0,0 l/m 0 min 0 min 0 W/m 16,1 km/h (3 Bft) 97,87 %
23.03.2023 20:18 13,1 C 12,2 C 8,3 C 80 % 1004,3 hPa 0,0 l/m 0 min 0 min 0 W/m 12,9 km/h (3 Bft) 97,87 %
23.03.2023 20:20 13,1 C 12,2 C 8,3 C 80 % 1004,2 hPa 0,0 l/m 0 min 0 min 0 W/m 12,9 km/h (3 Bft) 97,83 %
23.03.2023 20:22 13,1 C 12,2 C 8,3 C 80 % 1004,2 hPa 0,0 l/m 0 min 0 min 0 W/m 9,7 km/h (2 Bft) 97,92 %
23.03.2023 20:24 13,1 C 12,2 C 8,3 C 80 % 1004,1 hPa 0,0 l/m 0 min 0 min 0 W/m 6,4 km/h (2 Bft) 97,87 %
23.03.2023 20:26 13,1 C 12,2 C 8,3 C 80 % 1004,1 hPa 0,0 l/m 0 min 0 min 0 W/m 12,9 km/h (3 Bft) 97,87 %
23.03.2023 20:28 13,1 C 12,2 C 8,3 C 80 % 1004,1 hPa 0,0 l/m 0 min 0 min 0 W/m 12,9 km/h (3 Bft) 93,62 %
23.03.2023 20:30 13,1 C 12,2 C 8,3 C 80 % 1004,1 hPa 0,0 l/m 0 min 0 min 0 W/m 12,9 km/h (3 Bft) 97,87 %
23.03.2023 20:32 13,0 C 12,2 C 8,3 C 80 % 1004,0 hPa 0,0 l/m 0 min 0 min 0 W/m 12,9 km/h (3 Bft) 97,96 %
23.03.2023 20:34 13,0 C 12,2 C 8,3 C 80 % 1004,0 hPa 0,0 l/m 0 min 0 min 0 W/m 12,9 km/h (3 Bft) 100,00 %
23.03.2023 20:36 12,9 C 12,2 C 8,3 C 81 % 1004,0 hPa 0,0 l/m 0 min 0 min 0 W/m 19,3 km/h (3 Bft) 100,00 %
23.03.2023 20:38 12,9 C 12,2 C 8,3 C 81 % 1004,0 hPa 0,0 l/m 0 min 0 min 0 W/m 12,9 km/h (3 Bft) 100,00 %
23.03.2023 20:40 12,9 C 12,2 C 8,3 C 81 % 1003,9 hPa 0,0 l/m 0 min 0 min 0 W/m 9,7 km/h (2 Bft) 100,00 %
23.03.2023 20:42 12,9 C 12,2 C 8,3 C 81 % 1003,9 hPa 0,0 l/m 0 min 0 min 0 W/m 19,3 km/h (3 Bft) 100,00 %
23.03.2023 20:44 12,9 C 12,2 C 8,3 C 81 % 1003,9 hPa 0,0 l/m 0 min 0 min 0 W/m 12,9 km/h (3 Bft) 100,00 %
23.03.2023 20:46 12,9 C 12,2 C 8,3 C 81 % 1003,9 hPa 0,0 l/m 0 min 0 min 0 W/m 12,9 km/h (3 Bft) 97,87 %
23.03.2023 20:48 12,9 C 12,2 C 8,3 C 81 % 1003,8 hPa 0,0 l/m 0 min 0 min 0 W/m 9,7 km/h (2 Bft) 97,87 %
23.03.2023 20:50 12,8 C 12,2 C 8,3 C 81 % 1003,8 hPa 0,0 l/m 0 min 0 min 0 W/m 9,7 km/h (2 Bft) 100,00 %
23.03.2023 20:52 12,8 C 12,2 C 8,3 C 81 % 1003,8 hPa 0,0 l/m 0 min 0 min 0 W/m 16,1 km/h (3 Bft) 100,00 %
23.03.2023 20:54 12,8 C 12,2 C 8,3 C 81 % 1003,7 hPa 0,0 l/m 0 min 0 min 0 W/m 16,1 km/h (3 Bft) 100,00 %
23.03.2023 20:56 12,8 C 12,2 C 8,3 C 81 % 1003,7 hPa 0,0 l/m 0 min 0 min 0 W/m 9,7 km/h (2 Bft) 100,00 %
23.03.2023 20:58 12,8 C 12,2 C 8,3 C 81 % 1003,7 hPa 0,0 l/m 0 min 0 min 0 W/m 12,9 km/h (3 Bft) 100,00 %
23.03.2023 21:00 12,8 C 12,2 C 8,3 C 81 % 1003,7 hPa 0,0 l/m 0 min 0 min 0 W/m 16,1 km/h (3 Bft) 100,00 %
23.03.2023 21:02 12,8 C 12,2 C 8,3 C 81 % 1003,7 hPa 0,0 l/m 0 min 0 min 0 W/m 22,5 km/h (4 Bft) 100,00 %
23.03.2023 21:04 12,8 C 12,2 C 8,3 C 81 % 1003,6 hPa 0,0 l/m 0 min 0 min 0 W/m 19,3 km/h (3 Bft) 100,00 %
23.03.2023 21:06 12,8 C 12,2 C 8,3 C 81 % 1003,6 hPa 0,0 l/m 0 min 0 min 0 W/m 12,9 km/h (3 Bft) 98,31 %
23.03.2023 21:08 12,8 C 12,2 C 8,3 C 81 % 1003,6 hPa 0,0 l/m 0 min 0 min 0 W/m 22,5 km/h (4 Bft) 100,00 %
23.03.2023 21:10 12,9 C 12,2 C 8,3 C 81 % 1003,6 hPa 0,0 l/m 0 min 0 min 0 W/m 16,1 km/h (3 Bft) 100,00 %
23.03.2023 21:12 12,9 C 12,2 C 8,3 C 81 % 1003,6 hPa 0,0 l/m 0 min 0 min 0 W/m 19,3 km/h (3 Bft) 100,00 %
23.03.2023 21:14 12,9 C 12,2 C 8,3 C 81 % 1003,6 hPa 0,0 l/m 0 min 0 min 0 W/m 25,7 km/h (4 Bft) 97,83 %
23.03.2023 21:16 13,0 C 12,2 C 8,9 C 81 % 1003,6 hPa 0,0 l/m 0 min 0 min 0 W/m 19,3 km/h (3 Bft) 93,62 %
23.03.2023 21:18 13,1 C 12,2 C 8,9 C 81 % 1003,6 hPa 0,0 l/m 0 min 0 min 0 W/m 19,3 km/h (3 Bft) 97,87 %
23.03.2023 21:20 13,1 C 12,2 C 8,9 C 81 % 1003,5 hPa 0,0 l/m 0 min 0 min 0 W/m 16,1 km/h (3 Bft) 100,00 %
23.03.2023 21:22 13,1 C 12,2 C 8,9 C 81 % 1003,4 hPa 0,0 l/m 0 min 0 min 0 W/m 19,3 km/h (3 Bft) 100,00 %
23.03.2023 21:24 13,1 C 12,8 C 8,9 C 81 % 1003,4 hPa 0,0 l/m 0 min 0 min 0 W/m 19,3 km/h (3 Bft) 100,00 %
23.03.2023 21:26 13,1 C 12,8 C 8,9 C 81 % 1003,4 hPa 0,0 l/m 0 min 0 min 0 W/m 25,7 km/h (4 Bft) 100,00 %
23.03.2023 21:28 13,2 C 12,8 C 8,9 C 81 % 1003,3 hPa 0,0 l/m 0 min 0 min 0 W/m 22,5 km/h (4 Bft) 100,00 %
23.03.2023 21:30 13,2 C 12,8 C 8,9 C 80 % 1003,4 hPa 0,0 l/m 0 min 0 min 0 W/m 19,3 km/h (3 Bft) 95,74 %
23.03.2023 21:32 13,3 C 12,8 C 8,9 C 80 % 1003,3 hPa 0,0 l/m 0 min 0 min 0 W/m 25,7 km/h (4 Bft) 97,87 %
23.03.2023 21:34 13,3 C 12,8 C 8,9 C 80 % 1003,3 hPa 0,0 l/m 0 min 0 min 0 W/m 29,0 km/h (5 Bft) 95,74 %
23.03.2023 21:36 13,3 C 12,8 C 8,9 C 80 % 1003,3 hPa 0,0 l/m 0 min 0 min 0 W/m 22,5 km/h (4 Bft) 95,74 %
23.03.2023 21:38 13,3 C 12,8 C 8,9 C 80 % 1003,2 hPa 0,0 l/m 0 min 0 min 0 W/m 25,7 km/h (4 Bft) 95,74 %
23.03.2023 21:40 13,4 C 12,8 C 8,9 C 80 % 1003,2 hPa 0,0 l/m 0 min 0 min 0 W/m 25,7 km/h (4 Bft) 97,87 %
23.03.2023 21:42 13,4 C 12,8 C 8,9 C 79 % 1003,1 hPa 0,0 l/m 0 min 0 min 0 W/m 19,3 km/h (3 Bft) 97,83 %
23.03.2023 21:44 13,4 C 12,8 C 8,9 C 79 % 1003,2 hPa 0,0 l/m 0 min 0 min 0 W/m 25,7 km/h (4 Bft) 97,87 %
23.03.2023 21:46 13,4 C 12,8 C 8,9 C 79 % 1003,2 hPa 0,0 l/m 0 min 0 min 0 W/m 29,0 km/h (5 Bft) 94,83 %
23.03.2023 21:48 13,5 C 12,8 C 8,9 C 79 % 1003,1 hPa 0,0 l/m 0 min 0 min 0 W/m 16,1 km/h (3 Bft) 91,49 %
23.03.2023 21:50 13,5 C 12,8 C 8,9 C 79 % 1003,1 hPa 0,0 l/m 0 min 0 min 0 W/m 19,3 km/h (3 Bft) 95,74 %
23.03.2023 21:52 13,5 C 12,8 C 8,9 C 79 % 1003,1 hPa 0,0 l/m 0 min 0 min 0 W/m 19,3 km/h (3 Bft) 93,48 %
23.03.2023 21:54 13,5 C 12,8 C 8,9 C 79 % 1003,1 hPa 0,0 l/m 0 min 0 min 0 W/m 25,7 km/h (4 Bft) 95,74 %
23.03.2023 21:56 13,6 C 12,8 C 8,9 C 79 % 1003,1 hPa 0,0 l/m 0 min 2 min 0 W/m 25,7 km/h (4 Bft) 93,62 %
23.03.2023 21:58 13,6 C 12,8 C 8,9 C 80 % 1003,1 hPa 0,0 l/m 0 min 0 min 0 W/m 19,3 km/h (3 Bft) 91,49 %
23.03.2023 22:00 13,6 C 12,8 C 8,3 C 80 % 1003,1 hPa 0,0 l/m 0 min 2 min 0 W/m 22,5 km/h (4 Bft) 89,36 %
23.03.2023 22:02 13,6 C 12,8 C 8,3 C 80 % 1003,1 hPa 0,0 l/m 0 min 0 min 0 W/m 16,1 km/h (3 Bft) 93,62 %
23.03.2023 22:04 13,5 C 12,8 C 8,3 C 80 % 1003,1 hPa 0,0 l/m 0 min 2 min 0 W/m 19,3 km/h (3 Bft) 94,29 %
23.03.2023 22:06 13,5 C 12,8 C 8,3 C 81 % 1003,1 hPa 0,0 l/m 0 min 2 min 0 W/m 25,7 km/h (4 Bft) 91,67 %
23.03.2023 22:08 13,5 C 12,2 C 8,3 C 81 % 1003,2 hPa 0,0 l/m 0 min 0 min 0 W/m 16,1 km/h (3 Bft) 91,49 %
23.03.2023 22:10 13,4 C 12,2 C 8,3 C 81 % 1003,1 hPa 0,0 l/m 0 min 0 min 0 W/m 19,3 km/h (3 Bft) 95,65 %
23.03.2023 22:12 13,4 C 12,2 C 8,3 C 81 % 1003,1 hPa 0,0 l/m 0 min 0 min 0 W/m 19,3 km/h (3 Bft) 96,30 %
23.03.2023 22:14 13,4 C 12,2 C 8,3 C 81 % 1003,1 hPa 0,0 l/m 0 min 0 min 0 W/m 22,5 km/h (4 Bft) 91,49 %
23.03.2023 22:16 13,4 C 12,2 C 8,3 C 81 % 1003,1 hPa 0,0 l/m 0 min 0 min 0 W/m 29,0 km/h (5 Bft) 95,74 %
23.03.2023 22:18 13,4 C 12,2 C 8,3 C 81 % 1003,1 hPa 0,0 l/m 0 min 0 min 0 W/m 19,3 km/h (3 Bft) 93,62 %
23.03.2023 22:20 13,3 C 12,2 C 8,3 C 81 % 1003,1 hPa 0,0 l/m 0 min 0 min 0 W/m 29,0 km/h (5 Bft) 92,50 %
23.03.2023 22:22 13,3 C 12,2 C 8,3 C 81 % 1003,1 hPa 0,0 l/m 0 min 0 min 0 W/m 22,5 km/h (4 Bft) 95,74 %
23.03.2023 22:24 13,3 C 12,2 C 8,3 C 81 % 1003,3 hPa 0,0 l/m 0 min 0 min 0 W/m 25,7 km/h (4 Bft) 95,65 %
23.03.2023 22:26 13,3 C 12,2 C 8,3 C 81 % 1003,1 hPa 0,0 l/m 0 min 0 min 0 W/m 19,3 km/h (3 Bft) 93,62 %
23.03.2023 22:28 13,3 C 12,2 C 8,3 C 82 % 1003,1 hPa 0,0 l/m 0 min 0 min 0 W/m 16,1 km/h (3 Bft) 93,62 %
23.03.2023 22:30 13,3 C 12,2 C 8,3 C 82 % 1003,1 hPa 0,0 l/m 0 min 2 min 0 W/m 16,1 km/h (3 Bft) 95,74 %
23.03.2023 22:32 13,3 C 12,2 C 8,3 C 82 % 1003,1 hPa 0,0 l/m 0 min 0 min 0 W/m 19,3 km/h (3 Bft) 100,00 %
23.03.2023 22:34 13,2 C 12,2 C 8,3 C 82 % 1003,1 hPa 0,0 l/m 0 min 0 min 0 W/m 16,1 km/h (3 Bft) 100,00 %
23.03.2023 22:36 13,2 C 12,2 C 7,8 C 82 % 1003,0 hPa 0,0 l/m 0 min 0 min 0 W/m 19,3 km/h (3 Bft) 100,00 %
23.03.2023 22:38 13,2 C 12,2 C 7,8 C 82 % 1003,1 hPa 0,0 l/m 0 min 2 min 0 W/m 29,0 km/h (5 Bft) 100,00 %
23.03.2023 22:40 13,2 C 12,2 C 7,8 C 82 % 1003,1 hPa 0,0 l/m 0 min 2 min 0 W/m 19,3 km/h (3 Bft) 97,87 %
23.03.2023 22:42 13,2 C 12,2 C 8,3 C 82 % 1003,0 hPa 0,0 l/m 0 min 2 min 0 W/m 22,5 km/h (4 Bft) 100,00 %
23.03.2023 22:44 13,2 C 12,2 C 8,3 C 82 % 1003,1 hPa 0,0 l/m 0 min 0 min 0 W/m 22,5 km/h (4 Bft) 97,87 %
23.03.2023 22:46 13,2 C 12,2 C 8,3 C 82 % 1003,0 hPa 0,0 l/m 0 min 0 min 0 W/m 22,5 km/h (4 Bft) 100,00 %
23.03.2023 22:48 13,2 C 12,2 C 7,8 C 82 % 1003,1 hPa 0,0 l/m 0 min 2 min 0 W/m 25,7 km/h (4 Bft) 100,00 %
23.03.2023 22:50 13,2 C 12,2 C 7,8 C 82 % 1003,0 hPa 0,0 l/m 0 min 2 min 0 W/m 35,4 km/h (5 Bft) 100,00 %
23.03.2023 22:52 13,2 C 12,2 C 7,2 C 83 % 1003,1 hPa 0,0 l/m 0 min 2 min 0 W/m 29,0 km/h (5 Bft) 100,00 %
23.03.2023 22:54 13,2 C 12,2 C 7,2 C 83 % 1002,9 hPa 0,0 l/m 0 min 2 min 0 W/m 32,2 km/h (5 Bft) 100,00 %
23.03.2023 22:56 13,2 C 12,2 C 7,2 C 83 % 1002,9 hPa 0,0 l/m 0 min 2 min 0 W/m 29,0 km/h (5 Bft) 100,00 %
23.03.2023 22:58 13,2 C 12,2 C 7,2 C 83 % 1002,9 hPa 0,0 l/m 0 min 2 min 0 W/m 16,1 km/h (3 Bft) 100,00 %
23.03.2023 23:00 13,1 C 12,2 C 7,2 C 83 % 1002,9 hPa 0,0 l/m 0 min 2 min 0 W/m 16,1 km/h (3 Bft) 100,00 %
23.03.2023 23:02 13,1 C 12,2 C 7,2 C 83 % 1002,8 hPa 0,0 l/m 0 min 2 min 0 W/m 32,2 km/h (5 Bft) 100,00 %
23.03.2023 23:04 13,1 C 12,2 C 7,2 C 84 % 1002,9 hPa 0,0 l/m 0 min 2 min 0 W/m 19,3 km/h (3 Bft) 100,00 %
23.03.2023 23:06 13,1 C 11,7 C 7,2 C 84 % 1002,9 hPa 0,0 l/m 0 min 2 min 0 W/m 22,5 km/h (4 Bft) 100,00 %
23.03.2023 23:08 13,0 C 11,7 C 7,2 C 84 % 1002,9 hPa 0,0 l/m 0 min 2 min 0 W/m 19,3 km/h (3 Bft) 100,00 %
23.03.2023 23:10 12,9 C 11,7 C 7,2 C 84 % 1002,9 hPa 0,0 l/m 0 min 2 min 0 W/m 25,7 km/h (4 Bft) 100,00 %
23.03.2023 23:12 12,9 C 11,7 C 7,2 C 84 % 1002,9 hPa 0,0 l/m 0 min 2 min 0 W/m 16,1 km/h (3 Bft) 95,74 %
23.03.2023 23:14 12,9 C 11,7 C 7,2 C 85 % 1002,8 hPa 0,2 l/m 0 min 2 min 0 W/m 19,3 km/h (3 Bft) 100,00 %
23.03.2023 23:16 12,9 C 11,7 C 7,2 C 85 % 1002,8 hPa 0,0 l/m 0 min 2 min 0 W/m 19,3 km/h (3 Bft) 97,87 %
23.03.2023 23:18 12,8 C 11,7 C 6,7 C 85 % 1002,8 hPa 0,0 l/m 0 min 2 min 0 W/m 16,1 km/h (3 Bft) 100,00 %
23.03.2023 23:20 12,8 C 11,7 C 6,7 C 86 % 1002,8 hPa 0,0 l/m 0 min 2 min 0 W/m 12,9 km/h (3 Bft) 100,00 %
23.03.2023 23:22 12,8 C 11,7 C 6,7 C 86 % 1002,7 hPa 0,0 l/m 0 min 2 min 0 W/m 19,3 km/h (3 Bft) 100,00 %
23.03.2023 23:24 12,7 C 11,7 C 6,7 C 86 % 1002,8 hPa 0,0 l/m 0 min 2 min 0 W/m 35,4 km/h (5 Bft) 100,00 %
23.03.2023 23:26 12,7 C 11,7 C 6,7 C 87 % 1002,7 hPa 0,0 l/m 0 min 2 min 0 W/m 25,7 km/h (4 Bft) 100,00 %
23.03.2023 23:28 12,7 C 11,1 C 6,7 C 87 % 1002,7 hPa 0,0 l/m 0 min 2 min 0 W/m 29,0 km/h (5 Bft) 97,87 %
23.03.2023 23:30 12,6 C 11,1 C 6,7 C 87 % 1002,7 hPa 0,0 l/m 0 min 2 min 0 W/m 45,1 km/h (6 Bft) 100,00 %
23.03.2023 23:32 12,6 C 11,1 C 6,7 C 87 % 1002,6 hPa 0,0 l/m 0 min 2 min 0 W/m 19,3 km/h (3 Bft) 100,00 %
23.03.2023 23:34 12,6 C 11,1 C 6,7 C 88 % 1002,5 hPa 0,2 l/m 0 min 2 min 0 W/m 32,2 km/h (5 Bft) 100,00 %
23.03.2023 23:36 12,5 C 10,6 C 6,7 C 88 % 1002,6 hPa 0,0 l/m 0 min 2 min 0 W/m 19,3 km/h (3 Bft) 97,87 %
23.03.2023 23:38 12,4 C 10,6 C 6,7 C 88 % 1002,5 hPa 0,0 l/m 0 min 2 min 0 W/m 25,7 km/h (4 Bft) 100,00 %
23.03.2023 23:40 12,4 C 10,6 C 6,7 C 88 % 1002,5 hPa 0,2 l/m 0 min 2 min 0 W/m 16,1 km/h (3 Bft) 97,87 %
23.03.2023 23:42 12,4 C 10,6 C 6,7 C 89 % 1002,4 hPa 0,0 l/m 0 min 2 min 0 W/m 22,5 km/h (4 Bft) 100,00 %
23.03.2023 23:44 12,3 C 10,6 C 6,7 C 89 % 1002,4 hPa 0,0 l/m 0 min 2 min 0 W/m 12,9 km/h (3 Bft) 97,83 %
23.03.2023 23:46 12,3 C 10,6 C 6,7 C 89 % 1002,4 hPa 0,0 l/m 0 min 2 min 0 W/m 16,1 km/h (3 Bft) 100,00 %
23.03.2023 23:48 12,3 C 10,6 C 6,7 C 90 % 1002,3 hPa 0,0 l/m 0 min 2 min 0 W/m 12,9 km/h (3 Bft) 100,00 %
23.03.2023 23:50 12,2 C 10,6 C 6,7 C 90 % 1002,3 hPa 0,0 l/m 0 min 2 min 0 W/m 19,3 km/h (3 Bft) 97,87 %
23.03.2023 23:52 12,2 C 10,6 C 6,7 C 90 % 1002,2 hPa 0,0 l/m 0 min 2 min 0 W/m 12,9 km/h (3 Bft) 97,87 %
23.03.2023 23:54 12,2 C 10,6 C 6,7 C 90 % 1002,2 hPa 0,0 l/m 0 min 2 min 0 W/m 19,3 km/h (3 Bft) 97,87 %
23.03.2023 23:56 12,1 C 10,6 C 6,7 C 90 % 1002,2 hPa 0,0 l/m 0 min 2 min 0 W/m 16,1 km/h (3 Bft) 97,83 %
23.03.2023 23:58 12,1 C 10,6 C 6,7 C 91 % 1002,2 hPa 0,0 l/m 0 min 2 min 0 W/m 25,7 km/h (4 Bft) 97,67 %
_ Min-Zeit 11:36 10:40 10:42 18:26 23:52 - - - - 03:26 05:44
Minimum _ 9,7 C 8,9 C 5,0 C 77 % 1002,2 hPa - - - - 6,4 km/h (2 Bft) 75,61 %
_ Max-Zeit 16:44 16:12 16:46 12:14 12:14 10:38 12:24 12:12 15:16 15:42 00:02
Maximum _ 14,7 C 16,7 C 10,0 C 96 % 1006,2 hPa 0,4 l/m 2 min 4 min 586 W/m 48,3 km/h
S-SW (6 Bft)
100,00 %
Durchschnitt _ 12,6 C 12,2 C 7,9 C 86 % 1004,5 hPa #4,0 l/m #1:58 h #3:33 h 132 W/m 20,7 km/h (4 Bft) 97,38 %
© 2023 W. Hausmann